Wetterdaten: Montag, 17.08.2015
Datum Zeit Temp. Aussen +5cm Feuchte Auss BlattFeu 1 Luftdruck Regen Sonnenschein Regendauer Solar Windben
17.08.2015 00:00 13,7 C 12,8 C 99 % 15 lf 1014,3 hPa 0,0 l/m 0 min 2 min 0 W/m 12,6 km/h (3 Bft)
17.08.2015 00:02 13,7 C 12,8 C 99 % 15 lf 1014,3 hPa 0,0 l/m 0 min 2 min 0 W/m 14,6 km/h (3 Bft)
17.08.2015 00:05 13,7 C 12,8 C 99 % 15 lf 1014,3 hPa 0,0 l/m 0 min 2 min 0 W/m 18,8 km/h (3 Bft)
17.08.2015 00:08 13,7 C 12,8 C 99 % 15 lf 1014,3 hPa 0,0 l/m 0 min 2 min 0 W/m 20,9 km/h (4 Bft)
17.08.2015 00:10 13,7 C 12,8 C 99 % 15 lf 1014,3 hPa 0,0 l/m 0 min 2 min 0 W/m 10,5 km/h (2 Bft)
17.08.2015 00:12 13,7 C 12,8 C 99 % 15 lf 1014,3 hPa 0,0 l/m 0 min 2 min 0 W/m 14,6 km/h (3 Bft)
17.08.2015 00:14 13,7 C 12,8 C 99 % 15 lf 1014,3 hPa 0,0 l/m 0 min 2 min 0 W/m 16,7 km/h (3 Bft)
17.08.2015 00:16 13,7 C 12,8 C 99 % 15 lf 1014,4 hPa 0,0 l/m 0 min 2 min 0 W/m 12,6 km/h (3 Bft)
17.08.2015 00:18 13,8 C 12,8 C 99 % 15 lf 1014,4 hPa 0,0 l/m 0 min 2 min 0 W/m 6,3 km/h (2 Bft)
17.08.2015 00:20 13,8 C 12,8 C 99 % 15 lf 1014,4 hPa 0,0 l/m 0 min 2 min 0 W/m 16,7 km/h (3 Bft)
17.08.2015 00:22 13,8 C 12,8 C 99 % 15 lf 1014,4 hPa 0,0 l/m 0 min 2 min 0 W/m 12,6 km/h (3 Bft)
17.08.2015 00:24 13,8 C 12,8 C 99 % 15 lf 1014,3 hPa 0,0 l/m 0 min 2 min 0 W/m 14,6 km/h (3 Bft)
17.08.2015 00:26 13,8 C 12,8 C 99 % 15 lf 1014,3 hPa 0,0 l/m 0 min 2 min 0 W/m 12,6 km/h (3 Bft)
17.08.2015 00:28 13,8 C 12,8 C 99 % 15 lf 1014,3 hPa 0,0 l/m 0 min 2 min 0 W/m 18,8 km/h (3 Bft)
17.08.2015 00:30 13,8 C 12,8 C 99 % 15 lf 1014,3 hPa 0,0 l/m 0 min 2 min 0 W/m 8,4 km/h (2 Bft)
17.08.2015 00:32 13,8 C 12,8 C 99 % 15 lf 1014,3 hPa 0,0 l/m 0 min 2 min 0 W/m 18,8 km/h (3 Bft)
17.08.2015 00:34 13,8 C 12,8 C 99 % 15 lf 1014,2 hPa 0,0 l/m 0 min 2 min 0 W/m 18,8 km/h (3 Bft)
17.08.2015 00:36 13,7 C 12,8 C 99 % 15 lf 1014,2 hPa 0,0 l/m 0 min 2 min 0 W/m 23,0 km/h (4 Bft)
17.08.2015 00:38 13,7 C 12,8 C 99 % 15 lf 1014,3 hPa 0,0 l/m 0 min 0 min 0 W/m 12,6 km/h (3 Bft)
17.08.2015 00:40 13,7 C 12,8 C 99 % 15 lf 1014,2 hPa 0,0 l/m 0 min 0 min 0 W/m 18,8 km/h (3 Bft)
17.08.2015 00:42 13,7 C 12,8 C 99 % 15 lf 1014,2 hPa 0,2 l/m 0 min 0 min 0 W/m 14,6 km/h (3 Bft)
17.08.2015 00:44 13,7 C 12,8 C 99 % 15 lf 1014,3 hPa 0,0 l/m 0 min 0 min 0 W/m 20,9 km/h (4 Bft)
17.08.2015 00:46 13,7 C 12,8 C 99 % 15 lf 1014,2 hPa 0,0 l/m 0 min 0 min 0 W/m 18,8 km/h (3 Bft)
17.08.2015 00:48 13,7 C 12,8 C 99 % 15 lf 1014,2 hPa 0,0 l/m 0 min 2 min 0 W/m 20,9 km/h (4 Bft)
17.08.2015 00:50 13,7 C 12,8 C 99 % 15 lf 1014,2 hPa 0,0 l/m 0 min 0 min 0 W/m 14,6 km/h (3 Bft)
17.08.2015 00:52 13,7 C 12,8 C 99 % 15 lf 1014,2 hPa 0,0 l/m 0 min 2 min 0 W/m 14,6 km/h (3 Bft)
17.08.2015 00:54 13,7 C 12,8 C 99 % 15 lf 1014,2 hPa 0,0 l/m 0 min 2 min 0 W/m 23,0 km/h (4 Bft)
17.08.2015 00:56 13,6 C 12,8 C 99 % 15 lf 1014,3 hPa 0,0 l/m 0 min 2 min 0 W/m 16,7 km/h (3 Bft)
17.08.2015 00:58 13,6 C 12,8 C 99 % 15 lf 1014,3 hPa 0,0 l/m 0 min 2 min 0 W/m 18,8 km/h (3 Bft)
17.08.2015 01:00 13,6 C 12,8 C 99 % 15 lf 1014,2 hPa 0,0 l/m 0 min 2 min 0 W/m 14,6 km/h (3 Bft)
17.08.2015 01:02 13,6 C 12,8 C 99 % 15 lf 1014,2 hPa 0,0 l/m 0 min 2 min 0 W/m 18,8 km/h (3 Bft)
17.08.2015 01:04 13,6 C 12,8 C 99 % 15 lf 1014,3 hPa 0,0 l/m 0 min 2 min 0 W/m 14,6 km/h (3 Bft)
17.08.2015 01:06 13,6 C 12,2 C 99 % 15 lf 1014,2 hPa 0,0 l/m 0 min 2 min 0 W/m 20,9 km/h (4 Bft)
17.08.2015 01:08 13,6 C 12,8 C 99 % 15 lf 1014,2 hPa 0,0 l/m 0 min 2 min 0 W/m 16,7 km/h (3 Bft)
17.08.2015 01:10 13,6 C 12,2 C 99 % 15 lf 1014,3 hPa 0,0 l/m 0 min 2 min 0 W/m 16,7 km/h (3 Bft)
17.08.2015 01:12 13,6 C 12,2 C 99 % 15 lf 1014,2 hPa 0,0 l/m 0 min 2 min 0 W/m 23,0 km/h (4 Bft)
17.08.2015 01:14 13,5 C 12,2 C 99 % 15 lf 1014,2 hPa 0,0 l/m 0 min 2 min 0 W/m 16,7 km/h (3 Bft)
17.08.2015 01:16 13,5 C 12,2 C 99 % 15 lf 1014,2 hPa 0,0 l/m 0 min 2 min 0 W/m 12,6 km/h (3 Bft)
17.08.2015 01:18 13,5 C 12,2 C 99 % 15 lf 1014,1 hPa 0,0 l/m 0 min 2 min 0 W/m 14,6 km/h (3 Bft)
17.08.2015 01:20 13,5 C 12,2 C 99 % 15 lf 1014,1 hPa 0,0 l/m 0 min 2 min 0 W/m 18,8 km/h (3 Bft)
17.08.2015 01:22 13,5 C 12,2 C 99 % 15 lf 1014,0 hPa 0,2 l/m 0 min 2 min 0 W/m 20,9 km/h (4 Bft)
17.08.2015 01:24 13,5 C 12,2 C 99 % 15 lf 1014,1 hPa 0,0 l/m 0 min 2 min 0 W/m 12,6 km/h (3 Bft)
17.08.2015 01:26 13,4 C 12,2 C 99 % 15 lf 1014,1 hPa 0,0 l/m 0 min 2 min 0 W/m 14,6 km/h (3 Bft)
17.08.2015 01:28 13,4 C 12,2 C 99 % 15 lf 1014,1 hPa 0,0 l/m 0 min 2 min 0 W/m 12,6 km/h (3 Bft)
17.08.2015 01:30 13,4 C 12,2 C 99 % 15 lf 1014,1 hPa 0,0 l/m 0 min 2 min 0 W/m 20,9 km/h (4 Bft)
17.08.2015 01:32 13,4 C 12,2 C 99 % 15 lf 1014,1 hPa 0,0 l/m 0 min 2 min 0 W/m 23,0 km/h (4 Bft)
17.08.2015 01:34 13,4 C 12,2 C 99 % 15 lf 1014,0 hPa 0,0 l/m 0 min 2 min 0 W/m 14,6 km/h (3 Bft)
17.08.2015 01:36 13,4 C 12,2 C 99 % 15 lf 1014,1 hPa 0,0 l/m 0 min 2 min 0 W/m 14,6 km/h (3 Bft)
17.08.2015 01:38 13,4 C 12,2 C 99 % 15 lf 1014,1 hPa 0,0 l/m 0 min 2 min 0 W/m 16,7 km/h (3 Bft)
17.08.2015 01:40 13,4 C 12,2 C 99 % 15 lf 1014,0 hPa 0,0 l/m 0 min 2 min 0 W/m 16,7 km/h (3 Bft)
17.08.2015 01:42 13,4 C 12,2 C 99 % 15 lf 1014,1 hPa 0,0 l/m 0 min 2 min 0 W/m 14,6 km/h (3 Bft)
17.08.2015 01:44 13,4 C 12,2 C 99 % 15 lf 1014,1 hPa 0,0 l/m 0 min 2 min 0 W/m 10,5 km/h (2 Bft)
17.08.2015 01:46 13,4 C 12,2 C 99 % 15 lf 1014,1 hPa 0,0 l/m 0 min 2 min 0 W/m 14,6 km/h (3 Bft)
17.08.2015 01:48 13,4 C 12,2 C 99 % 15 lf 1014,1 hPa 0,0 l/m 0 min 2 min 0 W/m 16,7 km/h (3 Bft)
17.08.2015 01:50 13,4 C 12,2 C 99 % 15 lf 1014,1 hPa 0,2 l/m 0 min 2 min 0 W/m 14,6 km/h (3 Bft)
17.08.2015 01:52 13,3 C 12,2 C 99 % 15 lf 1014,1 hPa 0,0 l/m 0 min 2 min 0 W/m 18,8 km/h (3 Bft)
17.08.2015 01:54 13,3 C 12,2 C 99 % 15 lf 1014,0 hPa 0,0 l/m 0 min 2 min 0 W/m 18,8 km/h (3 Bft)
17.08.2015 01:56 13,3 C 12,2 C 99 % 15 lf 1014,0 hPa 0,0 l/m 0 min 2 min 0 W/m 16,7 km/h (3 Bft)
17.08.2015 01:58 13,3 C 12,2 C 99 % 15 lf 1014,0 hPa 0,0 l/m 0 min 2 min 0 W/m 14,6 km/h (3 Bft)
17.08.2015 02:00 13,3 C 12,2 C 99 % 15 lf 1014,1 hPa 0,0 l/m 0 min 2 min 0 W/m 14,6 km/h (3 Bft)
17.08.2015 02:02 13,3 C 12,2 C 99 % 15 lf 1014,0 hPa 0,0 l/m 0 min 2 min 0 W/m 16,7 km/h (3 Bft)
17.08.2015 02:04 13,3 C 12,2 C 99 % 15 lf 1014,0 hPa 0,0 l/m 0 min 2 min 0 W/m 12,6 km/h (3 Bft)
17.08.2015 02:06 13,3 C 12,2 C 99 % 15 lf 1014,0 hPa 0,0 l/m 0 min 2 min 0 W/m 14,6 km/h (3 Bft)
17.08.2015 02:08 13,3 C 12,2 C 99 % 15 lf 1014,0 hPa 0,2 l/m 0 min 2 min 0 W/m 12,6 km/h (3 Bft)
17.08.2015 02:10 13,3 C 12,2 C 99 % 15 lf 1014,0 hPa 0,0 l/m 0 min 2 min 0 W/m 14,6 km/h (3 Bft)
17.08.2015 02:12 13,3 C 12,2 C 99 % 15 lf 1013,9 hPa 0,0 l/m 0 min 2 min 0 W/m 14,6 km/h (3 Bft)
17.08.2015 02:14 13,3 C 12,2 C 99 % 15 lf 1013,9 hPa 0,0 l/m 0 min 2 min 0 W/m 12,6 km/h (3 Bft)
17.08.2015 02:16 13,2 C 12,2 C 99 % 15 lf 1013,9 hPa 0,0 l/m 0 min 2 min 0 W/m 10,5 km/h (2 Bft)
17.08.2015 02:18 13,2 C 12,2 C 99 % 15 lf 1013,9 hPa 0,0 l/m 0 min 2 min 0 W/m 14,6 km/h (3 Bft)
17.08.2015 02:20 13,2 C 12,2 C 99 % 15 lf 1013,9 hPa 0,0 l/m 0 min 2 min 0 W/m 14,6 km/h (3 Bft)
17.08.2015 02:22 13,2 C 12,2 C 99 % 15 lf 1013,9 hPa 0,0 l/m 0 min 2 min 0 W/m 16,7 km/h (3 Bft)
17.08.2015 02:24 13,2 C 12,2 C 99 % 15 lf 1013,9 hPa 0,2 l/m 0 min 2 min 0 W/m 16,7 km/h (3 Bft)
17.08.2015 02:26 13,2 C 12,2 C 99 % 15 lf 1013,8 hPa 0,0 l/m 0 min 2 min 0 W/m 14,6 km/h (3 Bft)
17.08.2015 02:28 13,2 C 12,2 C 99 % 15 lf 1013,9 hPa 0,0 l/m 0 min 2 min 0 W/m 14,6 km/h (3 Bft)
17.08.2015 02:30 13,2 C 12,2 C 99 % 15 lf 1013,9 hPa 0,0 l/m 0 min 2 min 0 W/m 14,6 km/h (3 Bft)
17.08.2015 02:32 13,2 C 12,2 C 99 % 15 lf 1013,9 hPa 0,0 l/m 0 min 2 min 0 W/m 18,8 km/h (3 Bft)
17.08.2015 02:34 13,2 C 12,2 C 99 % 15 lf 1013,8 hPa 0,0 l/m 0 min 2 min 0 W/m 12,6 km/h (3 Bft)
17.08.2015 02:36 13,2 C 12,2 C 99 % 15 lf 1013,8 hPa 0,0 l/m 0 min 2 min 0 W/m 16,7 km/h (3 Bft)
17.08.2015 02:38 13,2 C 12,2 C 99 % 15 lf 1013,8 hPa 0,0 l/m 0 min 0 min 0 W/m 16,7 km/h (3 Bft)
17.08.2015 02:40 13,2 C 12,2 C 99 % 15 lf 1013,8 hPa 0,0 l/m 0 min 0 min 0 W/m 14,6 km/h (3 Bft)
17.08.2015 02:42 13,2 C 12,2 C 99 % 15 lf 1013,8 hPa 0,0 l/m 0 min 0 min 0 W/m 18,8 km/h (3 Bft)
17.08.2015 02:44 13,2 C 12,2 C 99 % 15 lf 1013,7 hPa 0,0 l/m 0 min 0 min 0 W/m 12,6 km/h (3 Bft)
17.08.2015 02:46 13,2 C 12,2 C 99 % 15 lf 1013,7 hPa 0,0 l/m 0 min 0 min 0 W/m 10,5 km/h (2 Bft)
17.08.2015 02:48 13,2 C 12,2 C 99 % 15 lf 1013,7 hPa 0,0 l/m 0 min 0 min 0 W/m 14,6 km/h (3 Bft)
17.08.2015 02:50 13,2 C 12,2 C 99 % 15 lf 1013,8 hPa 0,0 l/m 0 min 0 min 0 W/m 18,8 km/h (3 Bft)
17.08.2015 02:52 13,2 C 12,2 C 99 % 15 lf 1013,8 hPa 0,0 l/m 0 min 0 min 0 W/m 18,8 km/h (3 Bft)
17.08.2015 02:54 13,2 C 12,2 C 99 % 15 lf 1013,8 hPa 0,0 l/m 0 min 0 min 0 W/m 18,8 km/h (3 Bft)
17.08.2015 02:56 13,2 C 12,2 C 99 % 15 lf 1013,7 hPa 0,0 l/m 0 min 2 min 0 W/m 18,8 km/h (3 Bft)
17.08.2015 02:58 13,2 C 12,2 C 99 % 15 lf 1013,7 hPa 0,0 l/m 0 min 2 min 0 W/m 16,7 km/h (3 Bft)
17.08.2015 03:00 13,2 C 12,2 C 99 % 15 lf 1013,7 hPa 0,0 l/m 0 min 2 min 0 W/m 18,8 km/h (3 Bft)
17.08.2015 03:02 13,1 C 12,2 C 99 % 15 lf 1013,7 hPa 0,0 l/m 0 min 2 min 0 W/m 12,6 km/h (3 Bft)
17.08.2015 03:04 13,1 C 12,2 C 99 % 15 lf 1013,7 hPa 0,0 l/m 0 min 2 min 0 W/m 16,7 km/h (3 Bft)
17.08.2015 03:06 13,1 C 12,2 C 99 % 15 lf 1013,7 hPa 0,0 l/m 0 min 2 min 0 W/m 12,6 km/h (3 Bft)
17.08.2015 03:08 13,1 C 12,2 C 99 % 15 lf 1013,7 hPa 0,0 l/m 0 min 2 min 0 W/m 14,6 km/h (3 Bft)
17.08.2015 03:10 13,1 C 12,2 C 99 % 15 lf 1013,7 hPa 0,0 l/m 0 min 2 min 0 W/m 14,6 km/h (3 Bft)
17.08.2015 03:12 13,1 C 12,2 C 99 % 15 lf 1013,7 hPa 0,0 l/m 0 min 0 min 0 W/m 12,6 km/h (3 Bft)
17.08.2015 03:14 13,1 C 12,2 C 99 % 15 lf 1013,7 hPa 0,0 l/m 0 min 0 min 0 W/m 14,6 km/h (3 Bft)
17.08.2015 03:16 13,1 C 12,2 C 99 % 15 lf 1013,7 hPa 0,2 l/m 0 min 2 min 0 W/m 12,6 km/h (3 Bft)
17.08.2015 03:18 13,1 C 12,2 C 99 % 15 lf 1013,7 hPa 0,0 l/m 0 min 2 min 0 W/m 14,6 km/h (3 Bft)
17.08.2015 03:20 13,1 C 12,2 C 99 % 15 lf 1013,7 hPa 0,0 l/m 0 min 2 min 0 W/m 16,7 km/h (3 Bft)
17.08.2015 03:22 13,1 C 12,2 C 99 % 15 lf 1013,6 hPa 0,0 l/m 0 min 2 min 0 W/m 12,6 km/h (3 Bft)
17.08.2015 03:24 13,1 C 12,2 C 99 % 15 lf 1013,7 hPa 0,0 l/m 0 min 2 min 0 W/m 14,6 km/h (3 Bft)
17.08.2015 03:26 13,1 C 12,2 C 99 % 15 lf 1013,6 hPa 0,0 l/m 0 min 0 min 0 W/m 14,6 km/h (3 Bft)
17.08.2015 03:28 13,1 C 12,2 C 99 % 15 lf 1013,7 hPa 0,0 l/m 0 min 2 min 0 W/m 20,9 km/h (4 Bft)
17.08.2015 03:30 13,1 C 12,2 C 99 % 15 lf 1013,7 hPa 0,0 l/m 0 min 2 min 0 W/m 10,5 km/h (2 Bft)
17.08.2015 03:32 13,1 C 12,2 C 99 % 15 lf 1013,6 hPa 0,0 l/m 0 min 2 min 0 W/m 14,6 km/h (3 Bft)
17.08.2015 03:34 13,1 C 12,2 C 99 % 15 lf 1013,6 hPa 0,0 l/m 0 min 2 min 0 W/m 8,4 km/h (2 Bft)
17.08.2015 03:36 13,1 C 12,2 C 99 % 15 lf 1013,6 hPa 0,0 l/m 0 min 2 min 0 W/m 16,7 km/h (3 Bft)
17.08.2015 03:38 13,1 C 12,2 C 99 % 15 lf 1013,7 hPa 0,0 l/m 0 min 2 min 0 W/m 16,7 km/h (3 Bft)
17.08.2015 03:40 13,1 C 12,2 C 99 % 15 lf 1013,7 hPa 0,0 l/m 0 min 2 min 0 W/m 14,6 km/h (3 Bft)
17.08.2015 03:42 13,1 C 12,2 C 99 % 15 lf 1013,7 hPa 0,0 l/m 0 min 2 min 0 W/m 14,6 km/h (3 Bft)
17.08.2015 03:44 13,1 C 12,2 C 99 % 15 lf 1013,7 hPa 0,0 l/m 0 min 2 min 0 W/m 12,6 km/h (3 Bft)
17.08.2015 03:46 13,1 C 12,2 C 99 % 15 lf 1013,7 hPa 0,0 l/m 0 min 2 min 0 W/m 12,6 km/h (3 Bft)
17.08.2015 03:48 13,2 C 12,2 C 99 % 15 lf 1013,7 hPa 0,2 l/m 0 min 2 min 0 W/m 14,6 km/h (3 Bft)
17.08.2015 03:50 13,1 C 12,2 C 99 % 15 lf 1013,7 hPa 0,0 l/m 0 min 2 min 0 W/m 14,6 km/h (3 Bft)
17.08.2015 03:52 13,1 C 12,2 C 99 % 15 lf 1013,7 hPa 0,0 l/m 0 min 2 min 0 W/m 12,6 km/h (3 Bft)
17.08.2015 03:54 13,1 C 12,2 C 99 % 15 lf 1013,6 hPa 0,0 l/m 0 min 2 min 0 W/m 10,5 km/h (2 Bft)
17.08.2015 03:56 13,2 C 12,2 C 99 % 15 lf 1013,6 hPa 0,0 l/m 0 min 2 min 0 W/m 23,0 km/h (4 Bft)
17.08.2015 03:58 13,2 C 12,2 C 99 % 15 lf 1013,6 hPa 0,0 l/m 0 min 2 min 0 W/m 14,6 km/h (3 Bft)
17.08.2015 04:00 13,2 C 12,2 C 99 % 15 lf 1013,7 hPa 0,0 l/m 0 min 2 min 0 W/m 14,6 km/h (3 Bft)
17.08.2015 04:01 13,2 C 12,2 C 99 % 15 lf 1013,7 hPa 0,0 l/m 0 min 1 min 0 W/m 8,4 km/h (2 Bft)
17.08.2015 04:02 13,2 C 12,2 C 99 % 15 lf 1013,7 hPa 0,0 l/m 0 min 1 min 0 W/m 0,0 km/h (0 Bft)
17.08.2015 04:03 13,2 C 12,2 C 99 % 15 lf 1013,7 hPa 0,0 l/m 0 min 1 min 0 W/m 0,0 km/h (0 Bft)
17.08.2015 04:04 13,2 C 12,2 C 99 % 15 lf 1013,7 hPa 0,0 l/m 0 min 1 min 0 W/m 0,0 km/h (0 Bft)
17.08.2015 04:05 13,2 C 12,2 C 99 % 15 lf 1013,8 hPa 0,0 l/m 0 min 1 min 0 W/m 0,0 km/h (0 Bft)
17.08.2015 04:06 13,2 C 12,2 C 99 % 15 lf 1013,7 hPa 0,0 l/m 0 min 1 min 0 W/m 0,0 km/h (0 Bft)
17.08.2015 04:07 13,2 C 12,2 C 99 % 15 lf 1013,6 hPa 0,0 l/m 0 min 1 min 0 W/m 14,6 km/h (3 Bft)
17.08.2015 04:10 13,2 C 12,2 C 99 % 15 lf 1013,7 hPa 0,2 l/m 0 min 2 min 0 W/m 8,4 km/h (2 Bft)
17.08.2015 04:12 13,2 C 12,2 C 99 % 15 lf 1013,7 hPa 0,0 l/m 0 min 2 min 0 W/m 14,6 km/h (3 Bft)
17.08.2015 04:14 13,2 C 12,2 C 99 % 15 lf 1013,6 hPa 0,0 l/m 0 min 2 min 0 W/m 12,6 km/h (3 Bft)
17.08.2015 04:16 13,2 C 12,2 C 99 % 15 lf 1013,7 hPa 0,0 l/m 0 min 2 min 0 W/m 12,6 km/h (3 Bft)
17.08.2015 04:18 13,2 C 12,2 C 99 % 15 lf 1013,7 hPa 0,0 l/m 0 min 2 min 0 W/m 10,5 km/h (2 Bft)
17.08.2015 04:20 13,2 C 12,2 C 99 % 15 lf 1013,7 hPa 0,0 l/m 0 min 2 min 0 W/m 12,6 km/h (3 Bft)
17.08.2015 04:22 13,2 C 12,2 C 99 % 15 lf 1013,7 hPa 0,2 l/m 0 min 2 min 0 W/m 16,7 km/h (3 Bft)
17.08.2015 04:24 13,2 C 12,2 C 99 % 15 lf 1013,7 hPa 0,0 l/m 0 min 2 min 0 W/m 14,6 km/h (3 Bft)
17.08.2015 04:26 13,2 C 12,2 C 99 % 15 lf 1013,6 hPa 0,0 l/m 0 min 2 min 0 W/m 12,6 km/h (3 Bft)
17.08.2015 04:28 13,2 C 12,2 C 99 % 15 lf 1013,5 hPa 0,0 l/m 0 min 2 min 0 W/m 14,6 km/h (3 Bft)
17.08.2015 04:30 13,2 C 12,2 C 99 % 15 lf 1013,6 hPa 0,0 l/m 0 min 2 min 0 W/m 14,6 km/h (3 Bft)
17.08.2015 04:32 13,1 C 12,2 C 99 % 15 lf 1013,5 hPa 0,0 l/m 0 min 2 min 0 W/m 14,6 km/h (3 Bft)
17.08.2015 04:34 13,2 C 12,2 C 99 % 15 lf 1013,5 hPa 0,0 l/m 0 min 2 min 0 W/m 18,8 km/h (3 Bft)
17.08.2015 04:36 13,2 C 12,2 C 99 % 15 lf 1013,5 hPa 0,0 l/m 0 min 2 min 0 W/m 12,6 km/h (3 Bft)
17.08.2015 04:38 13,1 C 12,2 C 99 % 15 lf 1013,5 hPa 0,0 l/m 0 min 2 min 0 W/m 16,7 km/h (3 Bft)
17.08.2015 04:40 13,2 C 12,2 C 99 % 15 lf 1013,5 hPa 0,0 l/m 0 min 2 min 0 W/m 16,7 km/h (3 Bft)
17.08.2015 04:42 13,1 C 12,2 C 99 % 15 lf 1013,5 hPa 0,0 l/m 0 min 2 min 0 W/m 10,5 km/h (2 Bft)
17.08.2015 04:44 13,1 C 12,2 C 99 % 15 lf 1013,5 hPa 0,0 l/m 0 min 2 min 0 W/m 10,5 km/h (2 Bft)
17.08.2015 04:46 13,1 C 12,2 C 99 % 15 lf 1013,5 hPa 0,0 l/m 0 min 2 min 0 W/m 16,7 km/h (3 Bft)
17.08.2015 04:48 13,2 C 12,2 C 99 % 15 lf 1013,4 hPa 0,2 l/m 0 min 2 min 0 W/m 10,5 km/h (2 Bft)
17.08.2015 04:50 13,1 C 12,2 C 99 % 15 lf 1013,4 hPa 0,0 l/m 0 min 2 min 0 W/m 12,6 km/h (3 Bft)
17.08.2015 04:52 13,1 C 12,2 C 99 % 15 lf 1013,4 hPa 0,0 l/m 0 min 2 min 0 W/m 20,9 km/h (4 Bft)
17.08.2015 04:54 13,2 C 12,2 C 99 % 15 lf 1013,4 hPa 0,0 l/m 0 min 2 min 0 W/m 16,7 km/h (3 Bft)
17.08.2015 04:56 13,2 C 12,2 C 99 % 15 lf 1013,4 hPa 0,0 l/m 0 min 2 min 0 W/m 8,4 km/h (2 Bft)
17.08.2015 04:58 13,2 C 12,2 C 99 % 15 lf 1013,4 hPa 0,0 l/m 0 min 2 min 0 W/m 16,7 km/h (3 Bft)
17.08.2015 05:00 13,1 C 12,2 C 99 % 15 lf 1013,4 hPa 0,0 l/m 0 min 2 min 0 W/m 14,6 km/h (3 Bft)
17.08.2015 05:02 13,1 C 12,2 C 99 % 15 lf 1013,3 hPa 0,0 l/m 0 min 2 min 0 W/m 14,6 km/h (3 Bft)
17.08.2015 05:04 13,1 C 12,2 C 99 % 15 lf 1013,3 hPa 0,0 l/m 0 min 2 min 0 W/m 16,7 km/h (3 Bft)
17.08.2015 05:06 13,1 C 12,2 C 99 % 15 lf 1013,2 hPa 0,0 l/m 0 min 2 min 0 W/m 20,9 km/h (4 Bft)
17.08.2015 05:08 13,2 C 12,2 C 99 % 15 lf 1013,3 hPa 0,0 l/m 0 min 2 min 0 W/m 16,7 km/h (3 Bft)
17.08.2015 05:10 13,2 C 12,2 C 99 % 15 lf 1013,3 hPa 0,0 l/m 0 min 0 min 0 W/m 14,6 km/h (3 Bft)
17.08.2015 05:12 13,1 C 12,2 C 99 % 15 lf 1013,3 hPa 0,0 l/m 0 min 0 min 0 W/m 10,5 km/h (2 Bft)
17.08.2015 05:14 13,1 C 12,2 C 99 % 15 lf 1013,3 hPa 0,0 l/m 0 min 0 min 0 W/m 18,8 km/h (3 Bft)
17.08.2015 05:16 13,1 C 12,2 C 99 % 15 lf 1013,3 hPa 0,0 l/m 0 min 0 min 0 W/m 12,6 km/h (3 Bft)
17.08.2015 05:18 13,1 C 12,2 C 99 % 15 lf 1013,2 hPa 0,0 l/m 0 min 0 min 0 W/m 16,7 km/h (3 Bft)
17.08.2015 05:20 13,1 C 12,2 C 99 % 15 lf 1013,1 hPa 0,0 l/m 0 min 0 min 0 W/m 16,7 km/h (3 Bft)
17.08.2015 05:22 13,1 C 12,2 C 99 % 15 lf 1013,2 hPa 0,0 l/m 0 min 0 min 0 W/m 14,6 km/h (3 Bft)
17.08.2015 05:24 13,1 C 12,2 C 99 % 15 lf 1013,1 hPa 0,0 l/m 0 min 0 min 0 W/m 12,6 km/h (3 Bft)
17.08.2015 05:26 13,1 C 12,2 C 99 % 15 lf 1013,1 hPa 0,0 l/m 0 min 0 min 0 W/m 18,8 km/h (3 Bft)
17.08.2015 05:28 13,1 C 12,2 C 99 % 15 lf 1013,1 hPa 0,0 l/m 0 min 0 min 0 W/m 12,6 km/h (3 Bft)
17.08.2015 05:30 13,1 C 12,2 C 99 % 15 lf 1013,1 hPa 0,0 l/m 0 min 0 min 0 W/m 12,6 km/h (3 Bft)
17.08.2015 05:32 13,1 C 12,2 C 99 % 15 lf 1013,1 hPa 0,0 l/m 0 min 0 min 0 W/m 14,6 km/h (3 Bft)
17.08.2015 05:34 13,1 C 12,2 C 99 % 15 lf 1013,1 hPa 0,0 l/m 0 min 0 min 0 W/m 14,6 km/h (3 Bft)
17.08.2015 05:36 13,1 C 12,2 C 99 % 15 lf 1013,1 hPa 0,0 l/m 0 min 0 min 0 W/m 12,6 km/h (3 Bft)
17.08.2015 05:38 13,1 C 12,2 C 99 % 15 lf 1013,1 hPa 0,0 l/m 0 min 0 min 0 W/m 12,6 km/h (3 Bft)
17.08.2015 05:40 13,1 C 12,2 C 99 % 15 lf 1013,1 hPa 0,0 l/m 0 min 0 min 0 W/m 16,7 km/h (3 Bft)
17.08.2015 05:42 13,1 C 12,2 C 99 % 15 lf 1013,0 hPa 0,0 l/m 0 min 0 min 0 W/m 14,6 km/h (3 Bft)
17.08.2015 05:44 13,1 C 12,2 C 99 % 15 lf 1013,0 hPa 0,0 l/m 0 min 0 min 0 W/m 16,7 km/h (3 Bft)
17.08.2015 05:46 13,1 C 12,2 C 99 % 15 lf 1013,0 hPa 0,0 l/m 0 min 0 min 0 W/m 16,7 km/h (3 Bft)
17.08.2015 05:48 13,1 C 12,2 C 99 % 15 lf 1013,0 hPa 0,0 l/m 0 min 0 min 0 W/m 14,6 km/h (3 Bft)
17.08.2015 05:50 13,1 C 12,2 C 99 % 15 lf 1013,0 hPa 0,0 l/m 0 min 0 min 0 W/m 16,7 km/h (3 Bft)
17.08.2015 05:52 13,1 C 12,2 C 99 % 15 lf 1013,0 hPa 0,0 l/m 0 min 0 min 0 W/m 12,6 km/h (3 Bft)
17.08.2015 05:54 13,1 C 12,2 C 99 % 15 lf 1013,0 hPa 0,0 l/m 0 min 0 min 0 W/m 10,5 km/h (2 Bft)
17.08.2015 05:56 13,1 C 12,2 C 99 % 15 lf 1013,1 hPa 0,0 l/m 0 min 0 min 0 W/m 12,6 km/h (3 Bft)
17.08.2015 05:58 13,1 C 12,2 C 99 % 15 lf 1013,0 hPa 0,0 l/m 0 min 0 min 0 W/m 12,6 km/h (3 Bft)
17.08.2015 06:00 13,1 C 12,2 C 99 % 15 lf 1013,0 hPa 0,0 l/m 0 min 0 min 0 W/m 12,6 km/h (3 Bft)
17.08.2015 06:02 13,1 C 12,2 C 99 % 15 lf 1013,0 hPa 0,0 l/m 0 min 0 min 0 W/m 10,5 km/h (2 Bft)
17.08.2015 06:05 13,1 C 12,2 C 99 % 15 lf 1013,0 hPa 0,0 l/m 0 min 0 min 0 W/m 12,6 km/h (3 Bft)
17.08.2015 06:06 13,1 C 12,2 C 99 % 15 lf 1013,0 hPa 0,0 l/m 0 min 0 min 0 W/m 12,6 km/h (3 Bft)
17.08.2015 06:08 13,1 C 12,2 C 99 % 15 lf 1013,0 hPa 0,0 l/m 0 min 0 min 0 W/m 12,6 km/h (3 Bft)
17.08.2015 06:10 13,1 C 12,2 C 99 % 15 lf 1013,1 hPa 0,0 l/m 0 min 0 min 0 W/m 16,7 km/h (3 Bft)
17.08.2015 06:12 13,1 C 12,2 C 99 % 15 lf 1013,1 hPa 0,0 l/m 0 min 0 min 0 W/m 16,7 km/h (3 Bft)
17.08.2015 06:14 13,1 C 12,2 C 99 % 15 lf 1013,0 hPa 0,0 l/m 0 min 0 min 0 W/m 14,6 km/h (3 Bft)
17.08.2015 06:16 13,1 C 12,2 C 99 % 15 lf 1013,0 hPa 0,2 l/m 0 min 0 min 0 W/m 10,5 km/h (2 Bft)
17.08.2015 06:18 13,1 C 12,2 C 99 % 15 lf 1013,0 hPa 0,0 l/m 0 min 0 min 0 W/m 10,5 km/h (2 Bft)
17.08.2015 06:20 13,1 C 12,2 C 99 % 15 lf 1013,0 hPa 0,0 l/m 0 min 0 min 0 W/m 14,6 km/h (3 Bft)
17.08.2015 06:22 13,1 C 12,2 C 99 % 15 lf 1013,0 hPa 0,0 l/m 0 min 0 min 0 W/m 14,6 km/h (3 Bft)
17.08.2015 06:24 13,1 C 12,2 C 99 % 15 lf 1013,0 hPa 0,0 l/m 0 min 0 min 0 W/m 18,8 km/h (3 Bft)
17.08.2015 06:26 13,1 C 12,2 C 99 % 15 lf 1013,0 hPa 0,0 l/m 0 min 0 min 0 W/m 18,8 km/h (3 Bft)
17.08.2015 06:28 13,1 C 12,2 C 99 % 15 lf 1013,0 hPa 0,0 l/m 0 min 0 min 0 W/m 16,7 km/h (3 Bft)
17.08.2015 06:30 13,1 C 12,2 C 99 % 15 lf 1013,0 hPa 0,0 l/m 0 min 0 min 0 W/m 20,9 km/h (4 Bft)
17.08.2015 06:32 13,1 C 12,2 C 99 % 15 lf 1013,0 hPa 0,0 l/m 0 min 0 min 0 W/m 20,9 km/h (4 Bft)
17.08.2015 06:34 13,1 C 12,2 C 99 % 15 lf 1013,0 hPa 0,0 l/m 0 min 0 min 0 W/m 10,5 km/h (2 Bft)
17.08.2015 06:36 13,0 C 12,2 C 99 % 15 lf 1013,0 hPa 0,0 l/m 0 min 0 min 0 W/m 16,7 km/h (3 Bft)
17.08.2015 06:38 13,1 C 12,2 C 99 % 15 lf 1013,0 hPa 0,0 l/m 0 min 0 min 0 W/m 8,4 km/h (2 Bft)
17.08.2015 06:40 13,1 C 12,2 C 99 % 15 lf 1013,0 hPa 0,0 l/m 0 min 0 min 0 W/m 16,7 km/h (3 Bft)
17.08.2015 06:42 13,1 C 12,2 C 99 % 15 lf 1013,0 hPa 0,0 l/m 0 min 0 min 0 W/m 12,6 km/h (3 Bft)
17.08.2015 06:44 13,1 C 12,2 C 99 % 15 lf 1013,1 hPa 0,0 l/m 0 min 0 min 0 W/m 14,6 km/h (3 Bft)
17.08.2015 06:46 13,0 C 12,2 C 99 % 15 lf 1013,1 hPa 0,0 l/m 0 min 0 min 0 W/m 10,5 km/h (2 Bft)
17.08.2015 06:48 13,0 C 12,2 C 99 % 15 lf 1013,0 hPa 0,0 l/m 0 min 0 min 0 W/m 14,6 km/h (3 Bft)
17.08.2015 06:50 13,0 C 12,2 C 99 % 15 lf 1013,0 hPa 0,0 l/m 0 min 0 min 0 W/m 12,6 km/h (3 Bft)
17.08.2015 06:52 13,0 C 12,2 C 99 % 15 lf 1013,0 hPa 0,0 l/m 0 min 0 min 0 W/m 14,6 km/h (3 Bft)
17.08.2015 06:54 13,0 C 12,2 C 99 % 15 lf 1013,0 hPa 0,0 l/m 0 min 0 min 1 W/m 14,6 km/h (3 Bft)
17.08.2015 06:56 13,0 C 12,2 C 99 % 15 lf 1013,0 hPa 0,0 l/m 0 min 0 min 5 W/m 12,6 km/h (3 Bft)
17.08.2015 06:58 13,0 C 12,2 C 99 % 15 lf 1013,1 hPa 0,0 l/m 0 min 0 min 5 W/m 18,8 km/h (3 Bft)
17.08.2015 07:00 13,0 C 12,2 C 99 % 15 lf 1013,0 hPa 0,0 l/m 0 min 0 min 5 W/m 16,7 km/h (3 Bft)
17.08.2015 07:02 13,0 C 12,2 C 99 % 15 lf 1013,1 hPa 0,0 l/m 0 min 0 min 5 W/m 25,1 km/h (4 Bft)
17.08.2015 07:04 13,0 C 12,2 C 99 % 15 lf 1013,1 hPa 0,0 l/m 0 min 0 min 5 W/m 12,6 km/h (3 Bft)
17.08.2015 07:06 13,0 C 12,2 C 99 % 15 lf 1013,2 hPa 0,0 l/m 0 min 0 min 5 W/m 12,6 km/h (3 Bft)
17.08.2015 07:08 13,0 C 12,2 C 99 % 15 lf 1013,2 hPa 0,0 l/m 0 min 0 min 7 W/m 16,7 km/h (3 Bft)
17.08.2015 07:10 13,0 C 12,2 C 99 % 15 lf 1013,1 hPa 0,0 l/m 0 min 0 min 7 W/m 12,6 km/h (3 Bft)
17.08.2015 07:12 13,0 C 12,2 C 99 % 15 lf 1013,1 hPa 0,0 l/m 0 min 0 min 7 W/m 18,8 km/h (3 Bft)
17.08.2015 07:14 13,0 C 12,2 C 99 % 15 lf 1013,0 hPa 0,0 l/m 0 min 0 min 8 W/m 18,8 km/h (3 Bft)
17.08.2015 07:16 13,0 C 12,2 C 99 % 15 lf 1012,9 hPa 0,0 l/m 0 min 0 min 9 W/m 18,8 km/h (3 Bft)
17.08.2015 07:18 13,0 C 12,2 C 99 % 15 lf 1013,0 hPa 0,0 l/m 0 min 0 min 9 W/m 23,0 km/h (4 Bft)
17.08.2015 07:20 13,0 C 12,2 C 99 % 15 lf 1013,0 hPa 0,0 l/m 0 min 0 min 9 W/m 20,9 km/h (4 Bft)
17.08.2015 07:22 12,9 C 12,2 C 99 % 15 lf 1013,0 hPa 0,0 l/m 0 min 0 min 9 W/m 10,5 km/h (2 Bft)
17.08.2015 07:24 12,9 C 12,2 C 99 % 15 lf 1013,0 hPa 0,0 l/m 0 min 0 min 9 W/m 18,8 km/h (3 Bft)
17.08.2015 07:26 12,9 C 12,2 C 99 % 15 lf 1013,0 hPa 0,0 l/m 0 min 0 min 10 W/m 10,5 km/h (2 Bft)
17.08.2015 07:28 12,9 C 12,2 C 99 % 15 lf 1013,1 hPa 0,0 l/m 0 min 0 min 9 W/m 16,7 km/h (3 Bft)
17.08.2015 07:30 12,9 C 12,2 C 99 % 15 lf 1013,1 hPa 0,0 l/m 0 min 0 min 9 W/m 14,6 km/h (3 Bft)
17.08.2015 07:32 12,9 C 12,2 C 99 % 15 lf 1013,0 hPa 0,0 l/m 0 min 0 min 10 W/m 18,8 km/h (3 Bft)
17.08.2015 07:34 12,9 C 12,2 C 99 % 15 lf 1012,9 hPa 0,0 l/m 0 min 0 min 11 W/m 16,7 km/h (3 Bft)
17.08.2015 07:36 12,9 C 12,2 C 99 % 15 lf 1013,0 hPa 0,0 l/m 0 min 0 min 12 W/m 18,8 km/h (3 Bft)
17.08.2015 07:38 12,9 C 12,2 C 99 % 15 lf 1013,0 hPa 0,0 l/m 0 min 0 min 12 W/m 12,6 km/h (3 Bft)
17.08.2015 07:40 12,9 C 12,2 C 99 % 15 lf 1013,0 hPa 0,0 l/m 0 min 0 min 13 W/m 16,7 km/h (3 Bft)
17.08.2015 07:42 12,9 C 12,2 C 99 % 15 lf 1012,9 hPa 0,0 l/m 0 min 2 min 13 W/m 16,7 km/h (3 Bft)
17.08.2015 07:44 12,9 C 12,2 C 99 % 15 lf 1013,0 hPa 0,0 l/m 0 min 2 min 13 W/m 14,6 km/h (3 Bft)
17.08.2015 07:46 13,0 C 12,2 C 99 % 15 lf 1012,9 hPa 0,0 l/m 0 min 2 min 14 W/m 16,7 km/h (3 Bft)
17.08.2015 07:48 12,9 C 12,2 C 99 % 15 lf 1012,9 hPa 0,0 l/m 0 min 2 min 14 W/m 16,7 km/h (3 Bft)
17.08.2015 07:50 12,9 C 12,2 C 99 % 15 lf 1012,9 hPa 0,0 l/m 0 min 2 min 14 W/m 14,6 km/h (3 Bft)
17.08.2015 07:52 13,0 C 12,2 C 99 % 15 lf 1012,8 hPa 0,0 l/m 0 min 2 min 17 W/m 12,6 km/h (3 Bft)
17.08.2015 07:54 13,0 C 12,2 C 99 % 15 lf 1012,8 hPa 0,0 l/m 0 min 2 min 17 W/m 10,5 km/h (2 Bft)
17.08.2015 07:56 13,0 C 12,2 C 99 % 15 lf 1012,8 hPa 0,0 l/m 0 min 2 min 17 W/m 18,8 km/h (3 Bft)
17.08.2015 07:58 13,0 C 12,2 C 99 % 15 lf 1012,8 hPa 0,0 l/m 0 min 2 min 18 W/m 18,8 km/h (3 Bft)
17.08.2015 08:00 13,0 C 12,2 C 99 % 15 lf 1012,8 hPa 0,0 l/m 0 min 2 min 21 W/m 14,6 km/h (3 Bft)
17.08.2015 08:02 13,0 C 12,2 C 99 % 15 lf 1012,8 hPa 0,0 l/m 0 min 2 min 23 W/m 16,7 km/h (3 Bft)
17.08.2015 08:04 13,0 C 12,2 C 99 % 15 lf 1012,8 hPa 0,0 l/m 0 min 0 min 22 W/m 16,7 km/h (3 Bft)
17.08.2015 08:06 13,0 C 12,2 C 99 % 15 lf 1012,8 hPa 0,0 l/m 0 min 0 min 21 W/m 16,7 km/h (3 Bft)
17.08.2015 08:08 13,0 C 12,2 C 99 % 15 lf 1012,8 hPa 0,0 l/m 0 min 0 min 21 W/m 10,5 km/h (2 Bft)
17.08.2015 08:10 13,0 C 12,2 C 99 % 15 lf 1012,8 hPa 0,0 l/m 0 min 0 min 21 W/m 20,9 km/h (4 Bft)
17.08.2015 08:12 13,0 C 12,2 C 99 % 15 lf 1012,8 hPa 0,0 l/m 0 min 0 min 22 W/m 12,6 km/h (3 Bft)
17.08.2015 08:14 13,0 C 12,2 C 99 % 15 lf 1012,8 hPa 0,0 l/m 0 min 0 min 25 W/m 25,1 km/h (4 Bft)
17.08.2015 08:16 13,0 C 12,2 C 99 % 15 lf 1012,8 hPa 0,0 l/m 0 min 0 min 25 W/m 23,0 km/h (4 Bft)
17.08.2015 08:18 13,1 C 12,2 C 99 % 15 lf 1012,8 hPa 0,0 l/m 0 min 0 min 24 W/m 14,6 km/h (3 Bft)
17.08.2015 08:20 13,1 C 12,2 C 99 % 15 lf 1012,9 hPa 0,0 l/m 0 min 0 min 27 W/m 18,8 km/h (3 Bft)
17.08.2015 08:22 13,1 C 12,2 C 99 % 15 lf 1012,8 hPa 0,0 l/m 0 min 0 min 30 W/m 18,8 km/h (3 Bft)
17.08.2015 08:24 13,1 C 12,2 C 99 % 15 lf 1012,9 hPa 0,0 l/m 0 min 0 min 28 W/m 16,7 km/h (3 Bft)
17.08.2015 08:26 13,1 C 12,2 C 99 % 15 lf 1012,9 hPa 0,0 l/m 0 min 0 min 28 W/m 20,9 km/h (4 Bft)
17.08.2015 08:28 13,1 C 12,2 C 99 % 15 lf 1012,9 hPa 0,0 l/m 0 min 0 min 30 W/m 20,9 km/h (4 Bft)
17.08.2015 08:30 13,1 C 12,2 C 99 % 15 lf 1012,8 hPa 0,0 l/m 0 min 0 min 32 W/m 18,8 km/h (3 Bft)
17.08.2015 08:32 13,1 C 12,2 C 99 % 15 lf 1012,8 hPa 0,0 l/m 0 min 0 min 33 W/m 14,6 km/h (3 Bft)
17.08.2015 08:34 13,1 C 12,2 C 99 % 15 lf 1012,8 hPa 0,0 l/m 0 min 0 min 35 W/m 20,9 km/h (4 Bft)
17.08.2015 08:36 13,1 C 12,2 C 99 % 15 lf 1012,8 hPa 0,0 l/m 0 min 2 min 35 W/m 29,3 km/h (5 Bft)
17.08.2015 08:38 13,1 C 12,2 C 99 % 15 lf 1012,8 hPa 0,0 l/m 0 min 0 min 34 W/m 16,7 km/h (3 Bft)
17.08.2015 08:40 13,1 C 12,2 C 99 % 15 lf 1012,8 hPa 0,0 l/m 0 min 0 min 36 W/m 18,8 km/h (3 Bft)
17.08.2015 08:42 13,1 C 12,2 C 99 % 15 lf 1012,8 hPa 0,0 l/m 0 min 0 min 35 W/m 16,7 km/h (3 Bft)
17.08.2015 08:44 13,1 C 12,2 C 99 % 15 lf 1012,7 hPa 0,0 l/m 0 min 0 min 37 W/m 16,7 km/h (3 Bft)
17.08.2015 08:46 13,1 C 12,2 C 99 % 15 lf 1012,7 hPa 0,0 l/m 0 min 0 min 39 W/m 16,7 km/h (3 Bft)
17.08.2015 08:48 13,2 C 12,2 C 99 % 15 lf 1012,7 hPa 0,0 l/m 0 min 0 min 38 W/m 12,6 km/h (3 Bft)
17.08.2015 08:50 13,2 C 12,2 C 99 % 15 lf 1012,6 hPa 0,0 l/m 0 min 0 min 38 W/m 20,9 km/h (4 Bft)
17.08.2015 08:52 13,2 C 12,2 C 99 % 15 lf 1012,7 hPa 0,0 l/m 0 min 0 min 36 W/m 16,7 km/h (3 Bft)
17.08.2015 08:54 13,2 C 12,2 C 99 % 15 lf 1012,7 hPa 0,0 l/m 0 min 0 min 34 W/m 18,8 km/h (3 Bft)
17.08.2015 08:56 13,2 C 12,2 C 99 % 15 lf 1012,6 hPa 0,0 l/m 0 min 0 min 37 W/m 18,8 km/h (3 Bft)
17.08.2015 08:58 13,2 C 12,2 C 99 % 15 lf 1012,6 hPa 0,0 l/m 0 min 0 min 34 W/m 20,9 km/h (4 Bft)
17.08.2015 09:00 13,2 C 12,2 C 99 % 15 lf 1012,7 hPa 0,0 l/m 0 min 0 min 35 W/m 14,6 km/h (3 Bft)
17.08.2015 09:02 13,2 C 12,2 C 99 % 15 lf 1012,7 hPa 0,0 l/m 0 min 0 min 38 W/m 16,7 km/h (3 Bft)
17.08.2015 09:04 13,2 C 12,2 C 99 % 15 lf 1012,7 hPa 0,0 l/m 0 min 0 min 35 W/m 18,8 km/h (3 Bft)
17.08.2015 09:06 13,2 C 12,2 C 99 % 15 lf 1012,8 hPa 0,0 l/m 0 min 0 min 35 W/m 12,6 km/h (3 Bft)
17.08.2015 09:08 13,2 C 12,2 C 99 % 15 lf 1012,8 hPa 0,0 l/m 0 min 0 min 38 W/m 18,8 km/h (3 Bft)
17.08.2015 09:10 13,2 C 12,2 C 99 % 15 lf 1012,7 hPa 0,0 l/m 0 min 0 min 40 W/m 20,9 km/h (4 Bft)
17.08.2015 09:12 13,2 C 12,2 C 99 % 15 lf 1012,7 hPa 0,0 l/m 0 min 0 min 46 W/m 20,9 km/h (4 Bft)
17.08.2015 09:14 13,2 C 12,8 C 99 % 15 lf 1012,8 hPa 0,0 l/m 0 min 0 min 45 W/m 12,6 km/h (3 Bft)
17.08.2015 09:16 13,2 C 12,2 C 99 % 15 lf 1012,7 hPa 0,0 l/m 0 min 0 min 42 W/m 12,6 km/h (3 Bft)
17.08.2015 09:18 13,2 C 12,8 C 99 % 15 lf 1012,8 hPa 0,0 l/m 0 min 0 min 40 W/m 14,6 km/h (3 Bft)
17.08.2015 09:20 13,3 C 12,8 C 99 % 15 lf 1012,8 hPa 0,0 l/m 0 min 0 min 40 W/m 16,7 km/h (3 Bft)
17.08.2015 09:22 13,3 C 12,8 C 99 % 15 lf 1012,7 hPa 0,0 l/m 0 min 0 min 42 W/m 18,8 km/h (3 Bft)
17.08.2015 09:24 13,3 C 12,8 C 99 % 15 lf 1012,7 hPa 0,0 l/m 0 min 0 min 44 W/m 18,8 km/h (3 Bft)
17.08.2015 09:26 13,3 C 12,8 C 99 % 15 lf 1012,8 hPa 0,0 l/m 0 min 0 min 49 W/m 27,2 km/h (4 Bft)
17.08.2015 09:28 13,3 C 12,8 C 99 % 15 lf 1012,7 hPa 0,0 l/m 0 min 0 min 54 W/m 23,0 km/h (4 Bft)
17.08.2015 09:30 13,3 C 12,8 C 99 % 15 lf 1012,7 hPa 0,0 l/m 0 min 0 min 57 W/m 25,1 km/h (4 Bft)
17.08.2015 09:32 13,3 C 12,8 C 99 % 15 lf 1012,8 hPa 0,0 l/m 0 min 0 min 55 W/m 25,1 km/h (4 Bft)
17.08.2015 09:34 13,3 C 12,8 C 99 % 15 lf 1012,8 hPa 0,0 l/m 0 min 0 min 55 W/m 20,9 km/h (4 Bft)
17.08.2015 09:36 13,3 C 12,8 C 99 % 15 lf 1012,8 hPa 0,0 l/m 0 min 0 min 56 W/m 16,7 km/h (3 Bft)
17.08.2015 09:38 13,3 C 12,8 C 99 % 15 lf 1012,8 hPa 0,0 l/m 0 min 0 min 53 W/m 14,6 km/h (3 Bft)
17.08.2015 09:40 13,3 C 12,8 C 99 % 15 lf 1012,7 hPa 0,0 l/m 0 min 0 min 60 W/m 20,9 km/h (4 Bft)
17.08.2015 09:42 13,3 C 12,8 C 99 % 15 lf 1012,8 hPa 0,0 l/m 0 min 0 min 63 W/m 18,8 km/h (3 Bft)
17.08.2015 09:44 13,4 C 12,8 C 99 % 15 lf 1012,7 hPa 0,0 l/m 0 min 0 min 57 W/m 18,8 km/h (3 Bft)
17.08.2015 09:46 13,4 C 12,8 C 99 % 15 lf 1012,8 hPa 0,0 l/m 0 min 0 min 59 W/m 25,1 km/h (4 Bft)
17.08.2015 09:48 13,4 C 12,8 C 99 % 15 lf 1012,7 hPa 0,0 l/m 0 min 0 min 60 W/m 25,1 km/h (4 Bft)
17.08.2015 09:50 13,4 C 12,8 C 99 % 15 lf 1012,8 hPa 0,0 l/m 0 min 0 min 61 W/m 16,7 km/h (3 Bft)
17.08.2015 09:52 13,4 C 12,8 C 99 % 15 lf 1012,8 hPa 0,0 l/m 0 min 0 min 55 W/m 14,6 km/h (3 Bft)
17.08.2015 09:54 13,4 C 12,8 C 99 % 15 lf 1012,7 hPa 0,0 l/m 0 min 0 min 64 W/m 18,8 km/h (3 Bft)
17.08.2015 09:56 13,4 C 12,8 C 99 % 15 lf 1012,8 hPa 0,0 l/m 0 min 0 min 60 W/m 12,6 km/h (3 Bft)
17.08.2015 09:58 13,4 C 12,8 C 99 % 15 lf 1012,8 hPa 0,0 l/m 0 min 0 min 59 W/m 10,5 km/h (2 Bft)
17.08.2015 10:00 13,4 C 12,8 C 99 % 15 lf 1012,8 hPa 0,0 l/m 0 min 0 min 60 W/m 12,6 km/h (3 Bft)
17.08.2015 10:02 13,5 C 12,8 C 99 % 15 lf 1012,8 hPa 0,0 l/m 0 min 0 min 61 W/m 10,5 km/h (2 Bft)
17.08.2015 10:04 13,5 C 12,8 C 99 % 15 lf 1012,7 hPa 0,0 l/m 0 min 0 min 62 W/m 23,0 km/h (4 Bft)
17.08.2015 10:06 13,5 C 12,8 C 99 % 15 lf 1012,8 hPa 0,0 l/m 0 min 0 min 67 W/m 14,6 km/h (3 Bft)
17.08.2015 10:08 13,5 C 12,8 C 99 % 15 lf 1012,8 hPa 0,0 l/m 0 min 0 min 75 W/m 12,6 km/h (3 Bft)
17.08.2015 10:10 13,6 C 12,8 C 99 % 15 lf 1012,8 hPa 0,0 l/m 0 min 0 min 67 W/m 18,8 km/h (3 Bft)
17.08.2015 10:12 13,6 C 12,8 C 99 % 15 lf 1012,7 hPa 0,0 l/m 0 min 0 min 63 W/m 12,6 km/h (3 Bft)
17.08.2015 10:14 13,6 C 12,8 C 99 % 15 lf 1012,8 hPa 0,0 l/m 0 min 0 min 56 W/m 16,7 km/h (3 Bft)
17.08.2015 10:16 13,6 C 12,8 C 99 % 15 lf 1012,8 hPa 0,0 l/m 0 min 0 min 57 W/m 14,6 km/h (3 Bft)
17.08.2015 10:18 13,6 C 12,8 C 99 % 15 lf 1012,8 hPa 0,0 l/m 0 min 0 min 54 W/m 20,9 km/h (4 Bft)
17.08.2015 10:20 13,6 C 12,8 C 99 % 15 lf 1012,8 hPa 0,0 l/m 0 min 0 min 49 W/m 14,6 km/h (3 Bft)
17.08.2015 10:22 13,6 C 12,8 C 99 % 15 lf 1012,8 hPa 0,0 l/m 0 min 0 min 52 W/m 18,8 km/h (3 Bft)
17.08.2015 10:24 13,6 C 12,8 C 99 % 15 lf 1012,8 hPa 0,0 l/m 0 min 0 min 51 W/m 10,5 km/h (2 Bft)
17.08.2015 10:26 13,6 C 12,8 C 99 % 15 lf 1012,8 hPa 0,0 l/m 0 min 0 min 48 W/m 14,6 km/h (3 Bft)
17.08.2015 10:28 13,6 C 12,8 C 99 % 15 lf 1012,8 hPa 0,0 l/m 0 min 0 min 47 W/m 14,6 km/h (3 Bft)
17.08.2015 10:30 13,6 C 12,8 C 100 % 15 lf 1012,8 hPa 0,0 l/m 0 min 0 min 48 W/m 14,6 km/h (3 Bft)
17.08.2015 10:32 13,6 C 12,8 C 99 % 15 lf 1012,9 hPa 0,0 l/m 0 min 0 min 49 W/m 16,7 km/h (3 Bft)
17.08.2015 10:34 13,6 C 12,8 C 100 % 15 lf 1012,9 hPa 0,0 l/m 0 min 0 min 49 W/m 16,7 km/h (3 Bft)
17.08.2015 10:36 13,7 C 12,8 C 100 % 15 lf 1012,9 hPa 0,0 l/m 0 min 0 min 55 W/m 18,8 km/h (3 Bft)
17.08.2015 10:38 13,7 C 12,8 C 100 % 15 lf 1012,8 hPa 0,0 l/m 0 min 0 min 57 W/m 12,6 km/h (3 Bft)
17.08.2015 10:40 13,7 C 12,8 C 100 % 15 lf 1012,8 hPa 0,0 l/m 0 min 0 min 58 W/m 14,6 km/h (3 Bft)
17.08.2015 10:42 13,7 C 12,8 C 100 % 15 lf 1012,9 hPa 0,0 l/m 0 min 0 min 53 W/m 10,5 km/h (2 Bft)
17.08.2015 10:44 13,7 C 12,8 C 100 % 15 lf 1012,9 hPa 0,0 l/m 0 min 0 min 55 W/m 14,6 km/h (3 Bft)
17.08.2015 10:46 13,7 C 12,8 C 100 % 15 lf 1012,9 hPa 0,0 l/m 0 min 0 min 56 W/m 23,0 km/h (4 Bft)
17.08.2015 10:48 13,7 C 12,8 C 100 % 15 lf 1012,9 hPa 0,0 l/m 0 min 0 min 56 W/m 16,7 km/h (3 Bft)
17.08.2015 10:50 13,7 C 12,8 C 100 % 15 lf 1012,9 hPa 0,0 l/m 0 min 0 min 55 W/m 20,9 km/h (4 Bft)
17.08.2015 10:52 13,7 C 12,8 C 100 % 15 lf 1012,9 hPa 0,0 l/m 0 min 0 min 62 W/m 16,7 km/h (3 Bft)
17.08.2015 10:54 13,7 C 12,8 C 100 % 15 lf 1012,9 hPa 0,0 l/m 0 min 0 min 60 W/m 18,8 km/h (3 Bft)
17.08.2015 10:56 13,7 C 12,8 C 100 % 15 lf 1012,9 hPa 0,0 l/m 0 min 0 min 60 W/m 18,8 km/h (3 Bft)
17.08.2015 10:58 13,7 C 12,8 C 100 % 15 lf 1012,9 hPa 0,0 l/m 0 min 0 min 62 W/m 12,6 km/h (3 Bft)
17.08.2015 11:00 13,7 C 13,3 C 100 % 15 lf 1012,9 hPa 0,0 l/m 0 min 0 min 66 W/m 12,6 km/h (3 Bft)
17.08.2015 11:02 13,7 C 13,3 C 100 % 15 lf 1012,8 hPa 0,0 l/m 0 min 0 min 71 W/m 14,6 km/h (3 Bft)
17.08.2015 11:04 13,7 C 13,3 C 100 % 15 lf 1012,9 hPa 0,0 l/m 0 min 0 min 71 W/m 14,6 km/h (3 Bft)
17.08.2015 11:06 13,7 C 13,3 C 100 % 15 lf 1012,8 hPa 0,0 l/m 0 min 0 min 77 W/m 10,5 km/h (2 Bft)
17.08.2015 11:08 13,8 C 13,3 C 100 % 15 lf 1012,9 hPa 0,0 l/m 0 min 0 min 76 W/m 14,6 km/h (3 Bft)
17.08.2015 11:10 13,8 C 13,3 C 100 % 15 lf 1012,9 hPa 0,0 l/m 0 min 0 min 86 W/m 18,8 km/h (3 Bft)
17.08.2015 11:12 13,8 C 13,3 C 100 % 15 lf 1012,8 hPa 0,0 l/m 0 min 0 min 91 W/m 14,6 km/h (3 Bft)
17.08.2015 11:14 13,8 C 13,3 C 99 % 15 lf 1012,8 hPa 0,0 l/m 0 min 0 min 81 W/m 8,4 km/h (2 Bft)
17.08.2015 11:16 13,8 C 13,3 C 99 % 15 lf 1012,8 hPa 0,0 l/m 0 min 0 min 85 W/m 14,6 km/h (3 Bft)
17.08.2015 11:18 13,8 C 13,3 C 99 % 15 lf 1012,8 hPa 0,0 l/m 0 min 0 min 83 W/m 10,5 km/h (2 Bft)
17.08.2015 11:20 13,9 C 13,3 C 99 % 15 lf 1012,8 hPa 0,0 l/m 0 min 2 min 101 W/m 8,4 km/h (2 Bft)
17.08.2015 11:22 13,9 C 13,3 C 99 % 15 lf 1012,8 hPa 0,0 l/m 0 min 2 min 104 W/m 14,6 km/h (3 Bft)
17.08.2015 11:24 13,9 C 13,3 C 99 % 15 lf 1012,9 hPa 0,0 l/m 0 min 2 min 97 W/m 14,6 km/h (3 Bft)
17.08.2015 11:26 14,0 C 13,3 C 99 % 15 lf 1012,9 hPa 0,0 l/m 0 min 2 min 92 W/m 14,6 km/h (3 Bft)
17.08.2015 11:28 14,0 C 13,3 C 100 % 15 lf 1012,9 hPa 0,0 l/m 0 min 2 min 101 W/m 12,6 km/h (3 Bft)
17.08.2015 11:30 14,0 C 13,3 C 100 % 15 lf 1012,9 hPa 0,0 l/m 0 min 2 min 97 W/m 12,6 km/h (3 Bft)
17.08.2015 11:32 14,1 C 13,3 C 100 % 15 lf 1012,9 hPa 0,0 l/m 0 min 2 min 114 W/m 23,0 km/h (4 Bft)
17.08.2015 11:34 14,1 C 13,3 C 100 % 15 lf 1012,9 hPa 0,0 l/m 0 min 2 min 100 W/m 12,6 km/h (3 Bft)
17.08.2015 11:36 14,1 C 13,3 C 100 % 15 lf 1012,9 hPa 0,0 l/m 0 min 2 min 80 W/m 18,8 km/h (3 Bft)
17.08.2015 11:38 14,1 C 13,3 C 100 % 15 lf 1012,9 hPa 0,0 l/m 0 min 2 min 75 W/m 16,7 km/h (3 Bft)
17.08.2015 11:40 14,1 C 13,3 C 100 % 15 lf 1012,9 hPa 0,0 l/m 0 min 2 min 83 W/m 12,6 km/h (3 Bft)
17.08.2015 11:42 14,1 C 13,3 C 100 % 15 lf 1013,0 hPa 0,0 l/m 0 min 2 min 86 W/m 18,8 km/h (3 Bft)
17.08.2015 11:44 14,1 C 12,8 C 100 % 15 lf 1013,0 hPa 0,0 l/m 0 min 2 min 77 W/m 12,6 km/h (3 Bft)
17.08.2015 11:46 14,1 C 12,8 C 100 % 15 lf 1013,0 hPa 0,0 l/m 0 min 2 min 73 W/m 18,8 km/h (3 Bft)
17.08.2015 11:48 14,1 C 13,3 C 100 % 15 lf 1013,0 hPa 0,0 l/m 0 min 2 min 73 W/m 14,6 km/h (3 Bft)
17.08.2015 11:50 14,1 C 13,3 C 100 % 15 lf 1013,0 hPa 0,0 l/m 0 min 2 min 72 W/m 14,6 km/h (3 Bft)
17.08.2015 11:52 14,1 C 13,3 C 100 % 15 lf 1012,9 hPa 0,2 l/m 0 min 2 min 72 W/m 12,6 km/h (3 Bft)
17.08.2015 11:54 14,2 C 13,3 C 100 % 15 lf 1012,9 hPa 0,0 l/m 0 min 2 min 70 W/m 8,4 km/h (2 Bft)
17.08.2015 11:56 14,2 C 13,3 C 100 % 15 lf 1012,9 hPa 0,0 l/m 0 min 2 min 74 W/m 16,7 km/h (3 Bft)
17.08.2015 11:58 14,2 C 13,3 C 100 % 15 lf 1012,9 hPa 0,0 l/m 0 min 2 min 82 W/m 16,7 km/h (3 Bft)
17.08.2015 12:00 14,2 C 13,3 C 100 % 15 lf 1012,9 hPa 0,0 l/m 0 min 2 min 98 W/m 14,6 km/h (3 Bft)
17.08.2015 12:02 14,2 C 13,3 C 99 % 15 lf 1012,9 hPa 0,0 l/m 0 min 2 min 118 W/m 14,6 km/h (3 Bft)
17.08.2015 12:05 14,2 C 13,3 C 99 % 15 lf 1012,8 hPa 0,0 l/m 0 min 0 min 134 W/m 14,6 km/h (3 Bft)
17.08.2015 12:08 14,2 C 13,3 C 99 % 15 lf 1012,9 hPa 0,0 l/m 0 min 0 min 128 W/m 14,6 km/h (3 Bft)
17.08.2015 12:10 14,2 C 13,3 C 99 % 15 lf 1012,8 hPa 0,0 l/m 0 min 0 min 102 W/m 10,5 km/h (2 Bft)
17.08.2015 12:12 14,2 C 13,3 C 99 % 15 lf 1012,9 hPa 0,0 l/m 0 min 0 min 92 W/m 16,7 km/h (3 Bft)
17.08.2015 12:14 14,2 C 13,3 C 99 % 15 lf 1012,9 hPa 0,0 l/m 0 min 0 min 83 W/m 14,6 km/h (3 Bft)
17.08.2015 12:16 14,2 C 13,3 C 99 % 15 lf 1012,9 hPa 0,0 l/m 0 min 0 min 84 W/m 14,6 km/h (3 Bft)
17.08.2015 12:18 14,2 C 13,3 C 99 % 15 lf 1012,9 hPa 0,0 l/m 0 min 0 min 90 W/m 18,8 km/h (3 Bft)
17.08.2015 12:20 14,2 C 13,3 C 99 % 15 lf 1012,9 hPa 0,0 l/m 0 min 0 min 103 W/m 16,7 km/h (3 Bft)
17.08.2015 12:22 14,2 C 13,3 C 99 % 15 lf 1013,0 hPa 0,0 l/m 0 min 0 min 99 W/m 14,6 km/h (3 Bft)
17.08.2015 12:24 14,2 C 13,3 C 99 % 15 lf 1013,0 hPa 0,0 l/m 0 min 0 min 94 W/m 16,7 km/h (3 Bft)
17.08.2015 12:26 14,2 C 13,3 C 99 % 15 lf 1013,0 hPa 0,0 l/m 0 min 0 min 91 W/m 16,7 km/h (3 Bft)
17.08.2015 12:28 14,2 C 13,3 C 99 % 15 lf 1013,0 hPa 0,0 l/m 0 min 0 min 87 W/m 12,6 km/h (3 Bft)
17.08.2015 12:30 14,2 C 13,3 C 99 % 15 lf 1012,9 hPa 0,0 l/m 0 min 0 min 94 W/m 14,6 km/h (3 Bft)
17.08.2015 12:32 14,2 C 13,3 C 99 % 15 lf 1012,9 hPa 0,0 l/m 0 min 0 min 78 W/m 10,5 km/h (2 Bft)
17.08.2015 12:34 14,2 C 13,3 C 99 % 15 lf 1012,9 hPa 0,0 l/m 0 min 0 min 66 W/m 18,8 km/h (3 Bft)
17.08.2015 12:36 14,2 C 13,3 C 99 % 15 lf 1012,9 hPa 0,0 l/m 0 min 0 min 64 W/m 16,7 km/h (3 Bft)
17.08.2015 12:38 14,2 C 12,8 C 99 % 15 lf 1012,9 hPa 0,0 l/m 0 min 0 min 63 W/m 16,7 km/h (3 Bft)
17.08.2015 12:40 14,2 C 13,3 C 99 % 15 lf 1012,9 hPa 0,0 l/m 0 min 0 min 63 W/m 16,7 km/h (3 Bft)
17.08.2015 12:42 14,2 C 12,8 C 99 % 15 lf 1012,8 hPa 0,0 l/m 0 min 0 min 74 W/m 20,9 km/h (4 Bft)
17.08.2015 12:44 14,2 C 13,3 C 99 % 15 lf 1012,9 hPa 0,0 l/m 0 min 2 min 85 W/m 14,6 km/h (3 Bft)
17.08.2015 12:46 14,2 C 13,3 C 99 % 15 lf 1012,8 hPa 0,0 l/m 0 min 2 min 104 W/m 20,9 km/h (4 Bft)
17.08.2015 12:48 14,2 C 13,3 C 99 % 15 lf 1012,7 hPa 0,0 l/m 0 min 0 min 121 W/m 16,7 km/h (3 Bft)
17.08.2015 12:50 14,2 C 13,3 C 99 % 15 lf 1012,7 hPa 0,0 l/m 0 min 2 min 107 W/m 16,7 km/h (3 Bft)
17.08.2015 12:52 14,2 C 13,3 C 99 % 15 lf 1012,8 hPa 0,0 l/m 0 min 2 min 104 W/m 20,9 km/h (4 Bft)
17.08.2015 12:54 14,2 C 13,3 C 99 % 15 lf 1012,8 hPa 0,0 l/m 0 min 2 min 140 W/m 14,6 km/h (3 Bft)
17.08.2015 12:56 14,2 C 13,3 C 99 % 15 lf 1012,8 hPa 0,0 l/m 0 min 2 min 122 W/m 23,0 km/h (4 Bft)
17.08.2015 12:58 14,2 C 13,3 C 99 % 15 lf 1012,8 hPa 0,0 l/m 0 min 2 min 124 W/m 27,2 km/h (4 Bft)
17.08.2015 13:00 14,2 C 13,3 C 99 % 15 lf 1012,8 hPa 0,0 l/m 0 min 2 min 143 W/m 14,6 km/h (3 Bft)
17.08.2015 13:02 14,2 C 13,3 C 99 % 15 lf 1012,7 hPa 0,0 l/m 0 min 2 min 150 W/m 23,0 km/h (4 Bft)
17.08.2015 13:04 14,2 C 13,3 C 99 % 15 lf 1012,7 hPa 0,0 l/m 0 min 2 min 149 W/m 16,7 km/h (3 Bft)
17.08.2015 13:06 14,2 C 13,3 C 99 % 15 lf 1012,7 hPa 0,0 l/m 0 min 2 min 127 W/m 16,7 km/h (3 Bft)
17.08.2015 13:08 14,2 C 13,3 C 99 % 15 lf 1012,7 hPa 0,0 l/m 0 min 2 min 104 W/m 20,9 km/h (4 Bft)
17.08.2015 13:10 14,2 C 13,3 C 99 % 15 lf 1012,7 hPa 0,2 l/m 0 min 2 min 88 W/m 16,7 km/h (3 Bft)
17.08.2015 13:12 14,2 C 13,3 C 99 % 15 lf 1012,7 hPa 0,0 l/m 0 min 2 min 77 W/m 10,5 km/h (2 Bft)
17.08.2015 13:14 14,2 C 13,3 C 99 % 15 lf 1012,8 hPa 0,0 l/m 0 min 2 min 77 W/m 16,7 km/h (3 Bft)
17.08.2015 13:16 14,2 C 13,3 C 99 % 15 lf 1012,7 hPa 0,0 l/m 0 min 2 min 76 W/m 8,4 km/h (2 Bft)
17.08.2015 13:18 14,3 C 13,3 C 99 % 15 lf 1012,7 hPa 0,0 l/m 0 min 2 min 81 W/m 16,7 km/h (3 Bft)
17.08.2015 13:20 14,3 C 13,3 C 99 % 15 lf 1012,7 hPa 0,0 l/m 0 min 2 min 89 W/m 23,0 km/h (4 Bft)
17.08.2015 13:22 14,3 C 13,3 C 99 % 15 lf 1012,7 hPa 0,0 l/m 0 min 2 min 101 W/m 16,7 km/h (3 Bft)
17.08.2015 13:24 14,3 C 13,3 C 99 % 15 lf 1012,8 hPa 0,0 l/m 0 min 2 min 128 W/m 18,8 km/h (3 Bft)
17.08.2015 13:26 14,3 C 13,3 C 99 % 15 lf 1012,8 hPa 0,0 l/m 0 min 2 min 121 W/m 10,5 km/h (2 Bft)
17.08.2015 13:28 14,3 C 13,3 C 99 % 15 lf 1012,8 hPa 0,0 l/m 0 min 2 min 110 W/m 12,6 km/h (3 Bft)
17.08.2015 13:30 14,3 C 13,3 C 99 % 15 lf 1012,8 hPa 0,0 l/m 0 min 2 min 87 W/m 10,5 km/h (2 Bft)
17.08.2015 13:32 14,4 C 13,3 C 99 % 15 lf 1012,8 hPa 0,0 l/m 0 min 2 min 85 W/m 12,6 km/h (3 Bft)
17.08.2015 13:34 14,4 C 13,3 C 99 % 15 lf 1012,8 hPa 0,0 l/m 0 min 2 min 87 W/m 12,6 km/h (3 Bft)
17.08.2015 13:36 14,4 C 13,3 C 99 % 15 lf 1012,8 hPa 0,0 l/m 0 min 2 min 82 W/m 18,8 km/h (3 Bft)
17.08.2015 13:38 14,3 C 13,3 C 99 % 15 lf 1012,8 hPa 0,0 l/m 0 min 2 min 79 W/m 16,7 km/h (3 Bft)
17.08.2015 13:40 14,3 C 13,3 C 99 % 15 lf 1012,8 hPa 0,0 l/m 0 min 2 min 82 W/m 18,8 km/h (3 Bft)
17.08.2015 13:42 14,3 C 13,3 C 99 % 15 lf 1012,9 hPa 0,0 l/m 0 min 2 min 72 W/m 12,6 km/h (3 Bft)
17.08.2015 13:44 14,3 C 13,3 C 99 % 15 lf 1012,8 hPa 0,0 l/m 0 min 2 min 70 W/m 10,5 km/h (2 Bft)
17.08.2015 13:46 14,3 C 13,3 C 99 % 15 lf 1012,8 hPa 0,0 l/m 0 min 2 min 77 W/m 14,6 km/h (3 Bft)
17.08.2015 13:48 14,3 C 13,3 C 99 % 15 lf 1012,8 hPa 0,0 l/m 0 min 2 min 71 W/m 20,9 km/h (4 Bft)
17.08.2015 13:50 14,3 C 13,3 C 99 % 15 lf 1012,8 hPa 0,0 l/m 0 min 2 min 67 W/m 16,7 km/h (3 Bft)
17.08.2015 13:52 14,3 C 13,3 C 99 % 15 lf 1012,8 hPa 0,2 l/m 0 min 2 min 72 W/m 23,0 km/h (4 Bft)
17.08.2015 13:54 14,3 C 13,3 C 99 % 15 lf 1012,9 hPa 0,0 l/m 0 min 2 min 75 W/m 18,8 km/h (3 Bft)
17.08.2015 13:56 14,3 C 13,3 C 99 % 15 lf 1012,9 hPa 0,0 l/m 0 min 2 min 90 W/m 14,6 km/h (3 Bft)
17.08.2015 13:58 14,3 C 13,3 C 99 % 15 lf 1012,9 hPa 0,0 l/m 0 min 2 min 95 W/m 12,6 km/h (3 Bft)
17.08.2015 14:00 14,3 C 13,3 C 99 % 15 lf 1012,8 hPa 0,0 l/m 0 min 2 min 100 W/m 12,6 km/h (3 Bft)
17.08.2015 14:02 14,3 C 13,3 C 99 % 15 lf 1012,9 hPa 0,0 l/m 0 min 2 min 121 W/m 14,6 km/h (3 Bft)
17.08.2015 14:04 14,3 C 13,3 C 99 % 15 lf 1012,9 hPa 0,2 l/m 0 min 2 min 131 W/m 14,6 km/h (3 Bft)
17.08.2015 14:06 14,3 C 13,3 C 99 % 15 lf 1012,8 hPa 0,0 l/m 0 min 2 min 134 W/m 20,9 km/h (4 Bft)
17.08.2015 14:08 14,3 C 13,3 C 99 % 15 lf 1012,8 hPa 0,0 l/m 0 min 2 min 143 W/m 18,8 km/h (3 Bft)
17.08.2015 14:10 14,3 C 13,3 C 99 % 15 lf 1012,8 hPa 0,0 l/m 0 min 2 min 139 W/m 18,8 km/h (3 Bft)
17.08.2015 14:12 14,3 C 13,3 C 99 % 15 lf 1012,8 hPa 0,0 l/m 0 min 2 min 137 W/m 18,8 km/h (3 Bft)
17.08.2015 14:14 14,3 C 13,3 C 99 % 15 lf 1012,8 hPa 0,0 l/m 0 min 2 min 133 W/m 16,7 km/h (3 Bft)
17.08.2015 14:16 14,3 C 13,3 C 99 % 15 lf 1012,7 hPa 0,0 l/m 0 min 2 min 139 W/m 14,6 km/h (3 Bft)
17.08.2015 14:18 14,4 C 13,3 C 99 % 15 lf 1012,8 hPa 0,0 l/m 0 min 2 min 137 W/m 16,7 km/h (3 Bft)
17.08.2015 14:20 14,4 C 13,9 C 99 % 15 lf 1012,9 hPa 0,0 l/m 0 min 2 min 143 W/m 16,7 km/h (3 Bft)
17.08.2015 14:22 14,4 C 13,9 C 99 % 15 lf 1012,8 hPa 0,2 l/m 0 min 2 min 141 W/m 12,6 km/h (3 Bft)
17.08.2015 14:24 14,4 C 13,9 C 99 % 15 lf 1012,8 hPa 0,0 l/m 0 min 2 min 131 W/m 12,6 km/h (3 Bft)
17.08.2015 14:26 14,5 C 13,9 C 99 % 15 lf 1012,8 hPa 0,0 l/m 0 min 2 min 124 W/m 14,6 km/h (3 Bft)
17.08.2015 14:28 14,5 C 13,9 C 99 % 15 lf 1012,8 hPa 0,0 l/m 0 min 2 min 123 W/m 14,6 km/h (3 Bft)
17.08.2015 14:30 14,5 C 13,3 C 99 % 15 lf 1012,9 hPa 0,0 l/m 0 min 2 min 118 W/m 14,6 km/h (3 Bft)
17.08.2015 14:32 14,5 C 13,3 C 99 % 15 lf 1012,9 hPa 0,0 l/m 0 min 2 min 117 W/m 16,7 km/h (3 Bft)
17.08.2015 14:34 14,5 C 13,3 C 99 % 15 lf 1012,9 hPa 0,0 l/m 0 min 2 min 117 W/m 20,9 km/h (4 Bft)
17.08.2015 14:36 14,5 C 13,9 C 99 % 15 lf 1012,8 hPa 0,0 l/m 0 min 2 min 128 W/m 12,6 km/h (3 Bft)
17.08.2015 14:38 14,6 C 13,9 C 99 % 15 lf 1012,8 hPa 0,0 l/m 0 min 2 min 126 W/m 16,7 km/h (3 Bft)
17.08.2015 14:40 14,6 C 13,9 C 99 % 15 lf 1012,7 hPa 0,0 l/m 0 min 2 min 138 W/m 16,7 km/h (3 Bft)
17.08.2015 14:42 14,6 C 13,9 C 99 % 15 lf 1012,7 hPa 0,0 l/m 0 min 2 min 145 W/m 14,6 km/h (3 Bft)
17.08.2015 14:44 14,6 C 13,9 C 99 % 15 lf 1012,7 hPa 0,0 l/m 0 min 2 min 137 W/m 14,6 km/h (3 Bft)
17.08.2015 14:46 14,6 C 13,9 C 99 % 15 lf 1012,7 hPa 0,0 l/m 0 min 2 min 136 W/m 12,6 km/h (3 Bft)
17.08.2015 14:48 14,6 C 13,9 C 99 % 15 lf 1012,6 hPa 0,0 l/m 0 min 2 min 151 W/m 18,8 km/h (3 Bft)
17.08.2015 14:50 14,6 C 13,9 C 99 % 15 lf 1012,6 hPa 0,0 l/m 0 min 2 min 156 W/m 16,7 km/h (3 Bft)
17.08.2015 14:52 14,7 C 13,9 C 99 % 15 lf 1012,6 hPa 0,0 l/m 0 min 2 min 145 W/m 20,9 km/h (4 Bft)
17.08.2015 14:54 14,7 C 13,9 C 99 % 15 lf 1012,6 hPa 0,2 l/m 0 min 2 min 152 W/m 18,8 km/h (3 Bft)
17.08.2015 14:56 14,7 C 13,9 C 99 % 15 lf 1012,6 hPa 0,0 l/m 0 min 2 min 156 W/m 16,7 km/h (3 Bft)
17.08.2015 14:58 14,7 C 13,9 C 99 % 15 lf 1012,6 hPa 0,0 l/m 0 min 2 min 169 W/m 20,9 km/h (4 Bft)
17.08.2015 15:00 14,7 C 13,9 C 99 % 15 lf 1012,6 hPa 0,0 l/m 0 min 2 min 172 W/m 23,0 km/h (4 Bft)
17.08.2015 15:02 14,7 C 13,9 C 99 % 15 lf 1012,6 hPa 0,0 l/m 0 min 2 min 164 W/m 18,8 km/h (3 Bft)
17.08.2015 15:04 14,7 C 13,9 C 99 % 15 lf 1012,6 hPa 0,0 l/m 0 min 2 min 173 W/m 16,7 km/h (3 Bft)
17.08.2015 15:06 14,7 C 13,9 C 99 % 15 lf 1012,6 hPa 0,0 l/m 0 min 2 min 182 W/m 12,6 km/h (3 Bft)
17.08.2015 15:08 14,8 C 13,9 C 99 % 15 lf 1012,6 hPa 0,0 l/m 0 min 2 min 194 W/m 14,6 km/h (3 Bft)
17.08.2015 15:10 14,8 C 13,9 C 99 % 15 lf 1012,5 hPa 0,0 l/m 0 min 2 min 188 W/m 16,7 km/h (3 Bft)
17.08.2015 15:12 14,8 C 14,4 C 99 % 15 lf 1012,5 hPa 0,0 l/m 0 min 2 min 193 W/m 14,6 km/h (3 Bft)
17.08.2015 15:14 14,8 C 14,4 C 99 % 15 lf 1012,6 hPa 0,0 l/m 0 min 2 min 152 W/m 14,6 km/h (3 Bft)
17.08.2015 15:16 14,9 C 13,9 C 99 % 15 lf 1012,6 hPa 0,2 l/m 0 min 2 min 147 W/m 16,7 km/h (3 Bft)
17.08.2015 15:18 14,9 C 13,9 C 99 % 15 lf 1012,5 hPa 0,0 l/m 0 min 2 min 164 W/m 12,6 km/h (3 Bft)
17.08.2015 15:20 14,9 C 13,9 C 99 % 15 lf 1012,5 hPa 0,0 l/m 0 min 2 min 145 W/m 14,6 km/h (3 Bft)
17.08.2015 15:22 14,9 C 13,9 C 99 % 15 lf 1012,6 hPa 0,0 l/m 0 min 2 min 138 W/m 10,5 km/h (2 Bft)
17.08.2015 15:24 15,0 C 13,9 C 99 % 15 lf 1012,5 hPa 0,0 l/m 0 min 2 min 128 W/m 18,8 km/h (3 Bft)
17.08.2015 15:26 14,9 C 13,9 C 99 % 15 lf 1012,5 hPa 0,0 l/m 0 min 2 min 123 W/m 16,7 km/h (3 Bft)
17.08.2015 15:28 14,9 C 13,9 C 99 % 15 lf 1012,6 hPa 0,0 l/m 0 min 2 min 117 W/m 14,6 km/h (3 Bft)
17.08.2015 15:30 14,9 C 13,9 C 99 % 15 lf 1012,5 hPa 0,0 l/m 0 min 2 min 112 W/m 12,6 km/h (3 Bft)
17.08.2015 15:32 14,9 C 13,9 C 99 % 15 lf 1012,6 hPa 0,0 l/m 0 min 2 min 111 W/m 14,6 km/h (3 Bft)
17.08.2015 15:34 14,9 C 13,9 C 99 % 15 lf 1012,5 hPa 0,0 l/m 0 min 2 min 109 W/m 12,6 km/h (3 Bft)
17.08.2015 15:36 14,9 C 13,9 C 99 % 15 lf 1012,5 hPa 0,0 l/m 0 min 2 min 102 W/m 14,6 km/h (3 Bft)
17.08.2015 15:38 14,9 C 13,9 C 99 % 15 lf 1012,5 hPa 0,0 l/m 0 min 2 min 108 W/m 12,6 km/h (3 Bft)
17.08.2015 15:40 14,9 C 13,9 C 99 % 15 lf 1012,5 hPa 0,0 l/m 0 min 2 min 95 W/m 18,8 km/h (3 Bft)
17.08.2015 15:42 14,9 C 13,9 C 99 % 15 lf 1012,5 hPa 0,2 l/m 0 min 2 min 93 W/m 12,6 km/h (3 Bft)
17.08.2015 15:44 14,8 C 13,9 C 99 % 15 lf 1012,5 hPa 0,0 l/m 0 min 2 min 103 W/m 10,5 km/h (2 Bft)
17.08.2015 15:46 14,8 C 13,9 C 99 % 15 lf 1012,5 hPa 0,0 l/m 0 min 2 min 104 W/m 14,6 km/h (3 Bft)
17.08.2015 15:48 14,8 C 13,9 C 99 % 15 lf 1012,5 hPa 0,0 l/m 0 min 2 min 98 W/m 8,4 km/h (2 Bft)
17.08.2015 15:50 14,9 C 13,9 C 99 % 15 lf 1012,5 hPa 0,0 l/m 0 min 2 min 91 W/m 12,6 km/h (3 Bft)
17.08.2015 15:52 14,9 C 13,9 C 99 % 15 lf 1012,5 hPa 0,0 l/m 0 min 2 min 77 W/m 14,6 km/h (3 Bft)
17.08.2015 15:54 14,8 C 13,9 C 99 % 15 lf 1012,5 hPa 0,0 l/m 0 min 2 min 78 W/m 10,5 km/h (2 Bft)
17.08.2015 15:56 14,8 C 13,9 C 99 % 15 lf 1012,5 hPa 0,0 l/m 0 min 2 min 90 W/m 12,6 km/h (3 Bft)
17.08.2015 15:58 14,8 C 13,9 C 99 % 15 lf 1012,5 hPa 0,0 l/m 0 min 2 min 92 W/m 10,5 km/h (2 Bft)
17.08.2015 16:00 14,8 C 13,9 C 99 % 15 lf 1012,5 hPa 0,0 l/m 0 min 2 min 102 W/m 10,5 km/h (2 Bft)
17.08.2015 16:02 14,9 C 13,9 C 99 % 15 lf 1012,5 hPa 0,2 l/m 0 min 2 min 92 W/m 14,6 km/h (3 Bft)
17.08.2015 16:04 14,9 C 13,9 C 99 % 15 lf 1012,6 hPa 0,0 l/m 0 min 2 min 83 W/m 16,7 km/h (3 Bft)
17.08.2015 16:06 14,9 C 13,9 C 99 % 15 lf 1012,6 hPa 0,0 l/m 0 min 2 min 91 W/m 12,6 km/h (3 Bft)
17.08.2015 16:08 14,9 C 13,9 C 99 % 15 lf 1012,6 hPa 0,0 l/m 0 min 2 min 96 W/m 14,6 km/h (3 Bft)
17.08.2015 16:10 14,9 C 13,9 C 99 % 15 lf 1012,6 hPa 0,0 l/m 0 min 2 min 98 W/m 14,6 km/h (3 Bft)
17.08.2015 16:13 14,9 C 13,9 C 99 % 15 lf 1012,6 hPa 0,0 l/m 0 min 2 min 65 W/m 12,6 km/h (3 Bft)
17.08.2015 16:15 14,9 C 13,9 C 99 % 15 lf 1012,6 hPa 0,2 l/m 0 min 2 min 78 W/m 12,6 km/h (3 Bft)
17.08.2015 16:18 14,9 C 13,9 C 99 % 15 lf 1012,5 hPa 0,0 l/m 0 min 2 min 83 W/m 8,4 km/h (2 Bft)
17.08.2015 16:20 14,9 C 13,9 C 99 % 15 lf 1012,5 hPa 0,0 l/m 0 min 2 min 98 W/m 12,6 km/h (3 Bft)
17.08.2015 16:22 14,8 C 13,9 C 99 % 15 lf 1012,5 hPa 0,0 l/m 0 min 2 min 91 W/m 10,5 km/h (2 Bft)
17.08.2015 16:24 14,9 C 13,9 C 99 % 15 lf 1012,6 hPa 0,0 l/m 0 min 2 min 82 W/m 8,4 km/h (2 Bft)
17.08.2015 16:26 14,8 C 13,9 C 99 % 15 lf 1012,5 hPa 0,0 l/m 0 min 2 min 63 W/m 14,6 km/h (3 Bft)
17.08.2015 16:28 14,8 C 13,9 C 99 % 15 lf 1012,5 hPa 0,0 l/m 0 min 2 min 58 W/m 10,5 km/h (2 Bft)
17.08.2015 16:30 14,9 C 13,9 C 99 % 15 lf 1012,5 hPa 0,2 l/m 0 min 2 min 46 W/m 12,6 km/h (3 Bft)
17.08.2015 16:32 14,9 C 13,9 C 99 % 15 lf 1012,5 hPa 0,0 l/m 0 min 2 min 52 W/m 10,5 km/h (2 Bft)
17.08.2015 16:34 14,9 C 13,9 C 99 % 15 lf 1012,5 hPa 0,0 l/m 0 min 2 min 93 W/m 8,4 km/h (2 Bft)
17.08.2015 16:36 14,9 C 13,9 C 99 % 15 lf 1012,5 hPa 0,0 l/m 0 min 2 min 97 W/m 10,5 km/h (2 Bft)
17.08.2015 16:38 14,9 C 13,9 C 99 % 15 lf 1012,5 hPa 0,0 l/m 0 min 2 min 91 W/m 14,6 km/h (3 Bft)
17.08.2015 16:40 14,9 C 13,9 C 99 % 15 lf 1012,5 hPa 0,0 l/m 0 min 2 min 85 W/m 14,6 km/h (3 Bft)
17.08.2015 16:42 14,9 C 13,9 C 99 % 15 lf 1012,5 hPa 0,0 l/m 0 min 2 min 76 W/m 10,5 km/h (2 Bft)
17.08.2015 16:44 14,9 C 13,9 C 99 % 15 lf 1012,5 hPa 0,0 l/m 0 min 2 min 81 W/m 12,6 km/h (3 Bft)
17.08.2015 16:46 14,9 C 13,9 C 99 % 15 lf 1012,5 hPa 0,0 l/m 0 min 2 min 86 W/m 10,5 km/h (2 Bft)
17.08.2015 16:48 14,9 C 13,9 C 99 % 15 lf 1012,5 hPa 0,0 l/m 0 min 2 min 89 W/m 8,4 km/h (2 Bft)
17.08.2015 16:50 14,9 C 13,9 C 99 % 15 lf 1012,5 hPa 0,0 l/m 0 min 2 min 92 W/m 12,6 km/h (3 Bft)
17.08.2015 16:52 14,9 C 13,9 C 99 % 15 lf 1012,5 hPa 0,0 l/m 0 min 2 min 93 W/m 8,4 km/h (2 Bft)
17.08.2015 16:54 14,9 C 13,9 C 99 % 15 lf 1012,5 hPa 0,2 l/m 0 min 2 min 92 W/m 10,5 km/h (2 Bft)
17.08.2015 16:56 14,9 C 13,9 C 99 % 15 lf 1012,5 hPa 0,0 l/m 0 min 2 min 88 W/m 14,6 km/h (3 Bft)
17.08.2015 16:58 14,9 C 13,9 C 99 % 15 lf 1012,5 hPa 0,0 l/m 0 min 2 min 89 W/m 10,5 km/h (2 Bft)
17.08.2015 17:00 14,9 C 13,9 C 99 % 15 lf 1012,5 hPa 0,0 l/m 0 min 2 min 93 W/m 8,4 km/h (2 Bft)
17.08.2015 17:02 14,9 C 13,9 C 99 % 15 lf 1012,5 hPa 0,0 l/m 0 min 2 min 95 W/m 12,6 km/h (3 Bft)
17.08.2015 17:04 15,0 C 13,9 C 99 % 15 lf 1012,5 hPa 0,0 l/m 0 min 2 min 91 W/m 16,7 km/h (3 Bft)
17.08.2015 17:06 15,0 C 13,9 C 99 % 15 lf 1012,4 hPa 0,0 l/m 0 min 2 min 76 W/m 12,6 km/h (3 Bft)
17.08.2015 17:08 14,9 C 13,9 C 99 % 15 lf 1012,4 hPa 0,0 l/m 0 min 2 min 64 W/m 10,5 km/h (2 Bft)
17.08.2015 17:10 14,9 C 13,9 C 99 % 15 lf 1012,4 hPa 0,0 l/m 0 min 2 min 62 W/m 18,8 km/h (3 Bft)
17.08.2015 17:12 14,9 C 13,3 C 99 % 15 lf 1012,4 hPa 0,0 l/m 0 min 2 min 60 W/m 16,7 km/h (3 Bft)
17.08.2015 17:14 14,9 C 13,9 C 99 % 15 lf 1012,4 hPa 0,2 l/m 0 min 2 min 59 W/m 20,9 km/h (4 Bft)
17.08.2015 17:16 14,9 C 13,9 C 98 % 15 lf 1012,4 hPa 0,0 l/m 0 min 2 min 58 W/m 10,5 km/h (2 Bft)
17.08.2015 17:18 14,9 C 13,9 C 98 % 15 lf 1012,4 hPa 0,0 l/m 0 min 2 min 58 W/m 14,6 km/h (3 Bft)
17.08.2015 17:20 14,8 C 13,9 C 98 % 15 lf 1012,4 hPa 0,2 l/m 0 min 2 min 58 W/m 12,6 km/h (3 Bft)
17.08.2015 17:22 14,8 C 13,9 C 98 % 15 lf 1012,4 hPa 0,0 l/m 0 min 2 min 62 W/m 16,7 km/h (3 Bft)
17.08.2015 17:24 14,8 C 13,9 C 98 % 15 lf 1012,3 hPa 0,0 l/m 0 min 2 min 63 W/m 12,6 km/h (3 Bft)
17.08.2015 17:26 14,8 C 13,9 C 98 % 15 lf 1012,4 hPa 0,0 l/m 0 min 2 min 60 W/m 8,4 km/h (2 Bft)
17.08.2015 17:28 14,8 C 13,9 C 98 % 15 lf 1012,4 hPa 0,2 l/m 0 min 2 min 63 W/m 12,6 km/h (3 Bft)
17.08.2015 17:30 14,8 C 13,9 C 98 % 15 lf 1012,4 hPa 0,0 l/m 0 min 2 min 53 W/m 10,5 km/h (2 Bft)
17.08.2015 17:32 14,8 C 13,3 C 98 % 15 lf 1012,4 hPa 0,0 l/m 0 min 2 min 58 W/m 10,5 km/h (2 Bft)
17.08.2015 17:34 14,8 C 13,9 C 98 % 15 lf 1012,4 hPa 0,2 l/m 0 min 2 min 61 W/m 18,8 km/h (3 Bft)
17.08.2015 17:36 14,8 C 13,9 C 98 % 15 lf 1012,3 hPa 0,2 l/m 0 min 2 min 61 W/m 12,6 km/h (3 Bft)
17.08.2015 17:38 14,8 C 13,3 C 98 % 15 lf 1012,4 hPa 0,0 l/m 0 min 2 min 64 W/m 16,7 km/h (3 Bft)
17.08.2015 17:40 14,8 C 13,3 C 98 % 15 lf 1012,4 hPa 0,2 l/m 0 min 2 min 63 W/m 16,7 km/h (3 Bft)
17.08.2015 17:42 14,8 C 13,3 C 98 % 15 lf 1012,4 hPa 0,0 l/m 0 min 2 min 62 W/m 16,7 km/h (3 Bft)
17.08.2015 17:44 14,8 C 13,3 C 98 % 15 lf 1012,4 hPa 0,2 l/m 0 min 2 min 62 W/m 14,6 km/h (3 Bft)
17.08.2015 17:46 14,8 C 13,3 C 98 % 15 lf 1012,4 hPa 0,0 l/m 0 min 2 min 61 W/m 12,6 km/h (3 Bft)
17.08.2015 17:48 14,7 C 13,3 C 98 % 15 lf 1012,4 hPa 0,2 l/m 0 min 2 min 60 W/m 12,6 km/h (3 Bft)
17.08.2015 17:50 14,7 C 13,3 C 98 % 15 lf 1012,4 hPa 0,0 l/m 0 min 2 min 60 W/m 16,7 km/h (3 Bft)
17.08.2015 17:52 14,7 C 13,3 C 98 % 15 lf 1012,4 hPa 0,0 l/m 0 min 2 min 58 W/m 16,7 km/h (3 Bft)
17.08.2015 17:54 14,7 C 13,3 C 98 % 15 lf 1012,4 hPa 0,0 l/m 0 min 2 min 58 W/m 14,6 km/h (3 Bft)
17.08.2015 17:56 14,7 C 13,9 C 98 % 15 lf 1012,4 hPa 0,2 l/m 0 min 2 min 58 W/m 12,6 km/h (3 Bft)
17.08.2015 17:58 14,7 C 13,9 C 98 % 15 lf 1012,3 hPa 0,0 l/m 0 min 2 min 58 W/m 12,6 km/h (3 Bft)
17.08.2015 18:00 14,7 C 13,3 C 98 % 15 lf 1012,3 hPa 0,0 l/m 0 min 2 min 55 W/m 14,6 km/h (3 Bft)
17.08.2015 18:03 14,7 C 13,3 C 98 % 15 lf 1012,3 hPa 0,2 l/m 0 min 2 min 30 W/m 12,6 km/h (3 Bft)
17.08.2015 18:04 14,7 C 13,3 C 98 % 15 lf 1012,3 hPa 0,2 l/m 0 min 1 min 37 W/m 12,6 km/h (3 Bft)
17.08.2015 18:06 14,7 C 13,3 C 98 % 15 lf 1012,3 hPa 0,0 l/m 0 min 2 min 30 W/m 10,5 km/h (2 Bft)
17.08.2015 18:08 14,7 C 13,3 C 98 % 15 lf 1012,3 hPa 0,0 l/m 0 min 2 min 32 W/m 10,5 km/h (2 Bft)
17.08.2015 18:10 14,7 C 13,3 C 98 % 15 lf 1012,3 hPa 0,0 l/m 0 min 2 min 32 W/m 12,6 km/h (3 Bft)
17.08.2015 18:12 14,7 C 13,3 C 99 % 15 lf 1012,3 hPa 0,2 l/m 0 min 2 min 30 W/m 12,6 km/h (3 Bft)
17.08.2015 18:14 14,7 C 13,3 C 98 % 15 lf 1012,3 hPa 0,0 l/m 0 min 2 min 37 W/m 14,6 km/h (3 Bft)
17.08.2015 18:16 14,7 C 13,3 C 99 % 15 lf 1012,2 hPa 0,0 l/m 0 min 2 min 37 W/m 12,6 km/h (3 Bft)
17.08.2015 18:18 14,7 C 13,3 C 98 % 15 lf 1012,3 hPa 0,2 l/m 0 min 2 min 32 W/m 10,5 km/h (2 Bft)
17.08.2015 18:20 14,7 C 13,3 C 99 % 15 lf 1012,3 hPa 0,0 l/m 0 min 2 min 34 W/m 14,6 km/h (3 Bft)
17.08.2015 18:22 14,7 C 13,3 C 99 % 15 lf 1012,2 hPa 0,0 l/m 0 min 2 min 39 W/m 14,6 km/h (3 Bft)
17.08.2015 18:24 14,7 C 13,3 C 99 % 15 lf 1012,2 hPa 0,2 l/m 0 min 2 min 50 W/m 14,6 km/h (3 Bft)
17.08.2015 18:26 14,7 C 13,3 C 99 % 15 lf 1012,2 hPa 0,0 l/m 0 min 2 min 52 W/m 12,6 km/h (3 Bft)
17.08.2015 18:28 14,7 C 13,3 C 99 % 15 lf 1012,2 hPa 0,0 l/m 0 min 2 min 53 W/m 18,8 km/h (3 Bft)
17.08.2015 18:30 14,7 C 13,3 C 99 % 15 lf 1012,2 hPa 0,0 l/m 0 min 2 min 53 W/m 14,6 km/h (3 Bft)
17.08.2015 18:32 14,7 C 13,3 C 99 % 15 lf 1012,1 hPa 0,0 l/m 0 min 2 min 48 W/m 20,9 km/h (4 Bft)
17.08.2015 18:34 14,7 C 13,3 C 99 % 15 lf 1012,1 hPa 0,0 l/m 0 min 2 min 47 W/m 16,7 km/h (3 Bft)
17.08.2015 18:36 14,6 C 13,3 C 99 % 15 lf 1012,2 hPa 0,2 l/m 0 min 2 min 43 W/m 12,6 km/h (3 Bft)
17.08.2015 18:38 14,6 C 13,3 C 99 % 15 lf 1012,1 hPa 0,0 l/m 0 min 2 min 42 W/m 10,5 km/h (2 Bft)
17.08.2015 18:40 14,6 C 13,3 C 99 % 15 lf 1012,1 hPa 0,0 l/m 0 min 2 min 41 W/m 18,8 km/h (3 Bft)
17.08.2015 18:42 14,6 C 13,3 C 99 % 15 lf 1012,1 hPa 0,2 l/m 0 min 2 min 42 W/m 16,7 km/h (3 Bft)
17.08.2015 18:44 14,6 C 13,3 C 99 % 15 lf 1012,1 hPa 0,0 l/m 0 min 2 min 42 W/m 14,6 km/h (3 Bft)
17.08.2015 18:46 14,6 C 13,3 C 99 % 15 lf 1012,1 hPa 0,0 l/m 0 min 2 min 42 W/m 16,7 km/h (3 Bft)
17.08.2015 18:48 14,6 C 13,3 C 99 % 15 lf 1012,1 hPa 0,0 l/m 0 min 2 min 40 W/m 14,6 km/h (3 Bft)
17.08.2015 18:50 14,6 C 13,3 C 99 % 15 lf 1012,0 hPa 0,2 l/m 0 min 2 min 39 W/m 8,4 km/h (2 Bft)
17.08.2015 18:52 14,5 C 13,3 C 98 % 15 lf 1012,1 hPa 0,0 l/m 0 min 2 min 38 W/m 10,5 km/h (2 Bft)
17.08.2015 18:54 14,5 C 13,3 C 98 % 15 lf 1012,0 hPa 0,2 l/m 0 min 2 min 34 W/m 12,6 km/h (3 Bft)
17.08.2015 18:56 14,5 C 13,3 C 98 % 15 lf 1012,0 hPa 0,0 l/m 0 min 2 min 33 W/m 8,4 km/h (2 Bft)
17.08.2015 18:58 14,5 C 13,3 C 98 % 15 lf 1012,0 hPa 0,0 l/m 0 min 2 min 32 W/m 8,4 km/h (2 Bft)
17.08.2015 19:00 14,5 C 13,3 C 98 % 15 lf 1012,0 hPa 0,2 l/m 0 min 2 min 32 W/m 12,6 km/h (3 Bft)
17.08.2015 19:02 14,5 C 13,3 C 98 % 15 lf 1012,1 hPa 0,0 l/m 0 min 2 min 27 W/m 16,7 km/h (3 Bft)
17.08.2015 19:04 14,5 C 13,3 C 98 % 15 lf 1012,0 hPa 0,2 l/m 0 min 2 min 28 W/m 18,8 km/h (3 Bft)
17.08.2015 19:06 14,5 C 13,3 C 98 % 15 lf 1012,1 hPa 0,0 l/m 0 min 2 min 28 W/m 10,5 km/h (2 Bft)
17.08.2015 19:08 14,5 C 13,3 C 98 % 15 lf 1012,1 hPa 0,0 l/m 0 min 2 min 25 W/m 16,7 km/h (3 Bft)
17.08.2015 19:10 14,5 C 13,3 C 98 % 15 lf 1012,1 hPa 0,0 l/m 0 min 2 min 25 W/m 18,8 km/h (3 Bft)
17.08.2015 19:12 14,4 C 13,3 C 98 % 15 lf 1012,1 hPa 0,2 l/m 0 min 2 min 30 W/m 27,2 km/h (4 Bft)
17.08.2015 19:14 14,4 C 13,3 C 98 % 15 lf 1012,0 hPa 0,0 l/m 0 min 2 min 33 W/m 16,7 km/h (3 Bft)
17.08.2015 19:16 14,4 C 13,3 C 98 % 15 lf 1012,0 hPa 0,0 l/m 0 min 2 min 33 W/m 12,6 km/h (3 Bft)
17.08.2015 19:18 14,4 C 13,3 C 98 % 15 lf 1012,0 hPa 0,0 l/m 0 min 2 min 33 W/m 12,6 km/h (3 Bft)
17.08.2015 19:20 14,4 C 13,3 C 98 % 15 lf 1012,0 hPa 0,0 l/m 0 min 2 min 28 W/m 14,6 km/h (3 Bft)
17.08.2015 19:22 14,3 C 13,3 C 98 % 15 lf 1012,1 hPa 0,0 l/m 0 min 2 min 23 W/m 12,6 km/h (3 Bft)
17.08.2015 19:24 14,3 C 13,3 C 98 % 15 lf 1012,0 hPa 0,0 l/m 0 min 2 min 22 W/m 16,7 km/h (3 Bft)
17.08.2015 19:26 14,3 C 13,3 C 99 % 15 lf 1012,1 hPa 0,2 l/m 0 min 2 min 21 W/m 14,6 km/h (3 Bft)
17.08.2015 19:28 14,3 C 13,3 C 99 % 15 lf 1012,0 hPa 0,0 l/m 0 min 2 min 22 W/m 18,8 km/h (3 Bft)
17.08.2015 19:30 14,3 C 13,3 C 99 % 15 lf 1012,0 hPa 0,0 l/m 0 min 2 min 22 W/m 12,6 km/h (3 Bft)
17.08.2015 19:32 14,3 C 13,3 C 99 % 15 lf 1012,0 hPa 0,0 l/m 0 min 2 min 19 W/m 12,6 km/h (3 Bft)
17.08.2015 19:34 14,3 C 13,3 C 99 % 15 lf 1012,0 hPa 0,0 l/m 0 min 2 min 17 W/m 10,5 km/h (2 Bft)
17.08.2015 19:36 14,3 C 13,3 C 99 % 15 lf 1012,0 hPa 0,2 l/m 0 min 2 min 18 W/m 6,3 km/h (2 Bft)
17.08.2015 19:38 14,3 C 13,3 C 99 % 15 lf 1012,0 hPa 0,0 l/m 0 min 2 min 18 W/m 12,6 km/h (3 Bft)
17.08.2015 19:40 14,3 C 12,8 C 99 % 15 lf 1012,1 hPa 0,0 l/m 0 min 2 min 18 W/m 10,5 km/h (2 Bft)
17.08.2015 19:42 14,2 C 12,8 C 99 % 15 lf 1012,1 hPa 0,2 l/m 0 min 2 min 18 W/m 8,4 km/h (2 Bft)
17.08.2015 19:44 14,2 C 13,3 C 99 % 15 lf 1012,1 hPa 0,0 l/m 0 min 2 min 18 W/m 8,4 km/h (2 Bft)
17.08.2015 19:46 14,2 C 13,3 C 99 % 15 lf 1012,1 hPa 0,0 l/m 0 min 2 min 18 W/m 16,7 km/h (3 Bft)
17.08.2015 19:48 14,2 C 13,3 C 99 % 15 lf 1012,1 hPa 0,0 l/m 0 min 2 min 16 W/m 12,6 km/h (3 Bft)
17.08.2015 19:50 14,2 C 12,8 C 99 % 15 lf 1012,1 hPa 0,0 l/m 0 min 2 min 17 W/m 12,6 km/h (3 Bft)
17.08.2015 19:52 14,2 C 12,8 C 99 % 15 lf 1012,1 hPa 0,0 l/m 0 min 2 min 18 W/m 12,6 km/h (3 Bft)
17.08.2015 19:54 14,2 C 13,3 C 99 % 15 lf 1012,1 hPa 0,0 l/m 0 min 2 min 18 W/m 10,5 km/h (2 Bft)
17.08.2015 19:56 14,2 C 12,8 C 99 % 15 lf 1012,1 hPa 0,2 l/m 0 min 2 min 19 W/m 12,6 km/h (3 Bft)
17.08.2015 19:58 14,2 C 12,8 C 99 % 15 lf 1012,1 hPa 0,0 l/m 0 min 2 min 18 W/m 12,6 km/h (3 Bft)
17.08.2015 20:00 14,2 C 12,8 C 99 % 15 lf 1012,1 hPa 0,0 l/m 0 min 2 min 18 W/m 14,6 km/h (3 Bft)
17.08.2015 20:02 14,2 C 13,3 C 99 % 15 lf 1012,1 hPa 0,0 l/m 0 min 2 min 16 W/m 6,3 km/h (2 Bft)
17.08.2015 20:04 14,2 C 12,8 C 99 % 15 lf 1012,1 hPa 0,0 l/m 0 min 2 min 14 W/m 12,6 km/h (3 Bft)
17.08.2015 20:06 14,2 C 12,8 C 99 % 15 lf 1012,2 hPa 0,0 l/m 0 min 2 min 14 W/m 16,7 km/h (3 Bft)
17.08.2015 20:08 14,2 C 12,8 C 99 % 15 lf 1012,1 hPa 0,0 l/m 0 min 2 min 12 W/m 10,5 km/h (2 Bft)
17.08.2015 20:10 14,2 C 12,8 C 99 % 15 lf 1012,1 hPa 0,0 l/m 0 min 2 min 12 W/m 8,4 km/h (2 Bft)
17.08.2015 20:12 14,2 C 12,8 C 99 % 15 lf 1012,2 hPa 0,2 l/m 0 min 2 min 11 W/m 16,7 km/h (3 Bft)
17.08.2015 20:14 14,2 C 12,8 C 99 % 15 lf 1012,2 hPa 0,0 l/m 0 min 2 min 11 W/m 16,7 km/h (3 Bft)
17.08.2015 20:16 14,2 C 12,8 C 99 % 15 lf 1012,2 hPa 0,0 l/m 0 min 2 min 11 W/m 14,6 km/h (3 Bft)
17.08.2015 20:18 14,2 C 12,8 C 99 % 15 lf 1012,2 hPa 0,0 l/m 0 min 2 min 9 W/m 12,6 km/h (3 Bft)
17.08.2015 20:20 14,2 C 12,8 C 99 % 15 lf 1012,2 hPa 0,0 l/m 0 min 2 min 9 W/m 16,7 km/h (3 Bft)
17.08.2015 20:22 14,2 C 12,8 C 99 % 15 lf 1012,2 hPa 0,0 l/m 0 min 2 min 9 W/m 14,6 km/h (3 Bft)
17.08.2015 20:24 14,2 C 12,8 C 99 % 15 lf 1012,2 hPa 0,0 l/m 0 min 2 min 9 W/m 10,5 km/h (2 Bft)
17.08.2015 20:26 14,2 C 12,8 C 98 % 15 lf 1012,2 hPa 0,0 l/m 0 min 2 min 7 W/m 12,6 km/h (3 Bft)
17.08.2015 20:28 14,2 C 12,8 C 99 % 15 lf 1012,1 hPa 0,0 l/m 0 min 2 min 7 W/m 12,6 km/h (3 Bft)
17.08.2015 20:30 14,2 C 12,8 C 98 % 15 lf 1012,1 hPa 0,0 l/m 0 min 2 min 6 W/m 10,5 km/h (2 Bft)
17.08.2015 20:32 14,2 C 12,8 C 98 % 15 lf 1012,2 hPa 0,0 l/m 0 min 2 min 5 W/m 8,4 km/h (2 Bft)
17.08.2015 20:34 14,2 C 12,8 C 98 % 15 lf 1012,2 hPa 0,0 l/m 0 min 2 min 5 W/m 12,6 km/h (3 Bft)
17.08.2015 20:36 14,2 C 12,8 C 98 % 15 lf 1012,2 hPa 0,0 l/m 0 min 2 min 5 W/m 12,6 km/h (3 Bft)
17.08.2015 20:38 14,2 C 12,8 C 98 % 15 lf 1012,2 hPa 0,2 l/m 0 min 2 min 5 W/m 10,5 km/h (2 Bft)
17.08.2015 20:40 14,2 C 12,8 C 98 % 15 lf 1012,2 hPa 0,0 l/m 0 min 2 min 2 W/m 12,6 km/h (3 Bft)
17.08.2015 20:42 14,2 C 12,8 C 99 % 15 lf 1012,2 hPa 0,0 l/m 0 min 2 min 0 W/m 14,6 km/h (3 Bft)
17.08.2015 20:44 14,2 C 12,8 C 99 % 15 lf 1012,2 hPa 0,0 l/m 0 min 2 min 0 W/m 12,6 km/h (3 Bft)
17.08.2015 20:46 14,2 C 12,8 C 99 % 15 lf 1012,2 hPa 0,0 l/m 0 min 2 min 0 W/m 10,5 km/h (2 Bft)
17.08.2015 20:48 14,2 C 12,8 C 99 % 15 lf 1012,3 hPa 0,0 l/m 0 min 2 min 0 W/m 8,4 km/h (2 Bft)
17.08.2015 20:50 14,2 C 12,8 C 99 % 15 lf 1012,3 hPa 0,0 l/m 0 min 2 min 0 W/m 16,7 km/h (3 Bft)
17.08.2015 20:52 14,2 C 12,8 C 99 % 15 lf 1012,3 hPa 0,0 l/m 0 min 2 min 0 W/m 14,6 km/h (3 Bft)
17.08.2015 20:54 14,2 C 12,8 C 99 % 15 lf 1012,3 hPa 0,0 l/m 0 min 2 min 0 W/m 14,6 km/h (3 Bft)
17.08.2015 20:56 14,2 C 12,8 C 99 % 15 lf 1012,3 hPa 0,0 l/m 0 min 2 min 0 W/m 20,9 km/h (4 Bft)
17.08.2015 20:58 14,2 C 12,8 C 99 % 15 lf 1012,3 hPa 0,0 l/m 0 min 2 min 0 W/m 14,6 km/h (3 Bft)
17.08.2015 21:00 14,2 C 12,8 C 99 % 15 lf 1012,3 hPa 0,2 l/m 0 min 2 min 0 W/m 14,6 km/h (3 Bft)
17.08.2015 21:02 14,2 C 12,8 C 99 % 15 lf 1012,3 hPa 0,0 l/m 0 min 2 min 0 W/m 16,7 km/h (3 Bft)
17.08.2015 21:04 14,2 C 12,8 C 99 % 15 lf 1012,3 hPa 0,0 l/m 0 min 2 min 0 W/m 8,4 km/h (2 Bft)
17.08.2015 21:06 14,2 C 12,8 C 99 % 15 lf 1012,3 hPa 0,0 l/m 0 min 2 min 0 W/m 14,6 km/h (3 Bft)
17.08.2015 21:08 14,2 C 12,8 C 99 % 15 lf 1012,3 hPa 0,0 l/m 0 min 2 min 0 W/m 12,6 km/h (3 Bft)
17.08.2015 21:10 14,2 C 12,8 C 99 % 15 lf 1012,3 hPa 0,0 l/m 0 min 2 min 0 W/m 14,6 km/h (3 Bft)
17.08.2015 21:12 14,2 C 12,8 C 99 % 15 lf 1012,3 hPa 0,0 l/m 0 min 2 min 0 W/m 12,6 km/h (3 Bft)
17.08.2015 21:14 14,2 C 12,8 C 99 % 15 lf 1012,3 hPa 0,0 l/m 0 min 2 min 0 W/m 10,5 km/h (2 Bft)
17.08.2015 21:16 14,2 C 12,8 C 99 % 15 lf 1012,4 hPa 0,0 l/m 0 min 2 min 0 W/m 16,7 km/h (3 Bft)
17.08.2015 21:18 14,2 C 12,8 C 99 % 15 lf 1012,4 hPa 0,0 l/m 0 min 2 min 0 W/m 16,7 km/h (3 Bft)
17.08.2015 21:20 14,1 C 12,8 C 99 % 15 lf 1012,4 hPa 0,0 l/m 0 min 2 min 0 W/m 16,7 km/h (3 Bft)
17.08.2015 21:22 14,1 C 12,8 C 99 % 15 lf 1012,4 hPa 0,0 l/m 0 min 2 min 0 W/m 16,7 km/h (3 Bft)
17.08.2015 21:24 14,1 C 12,8 C 99 % 15 lf 1012,4 hPa 0,0 l/m 0 min 2 min 0 W/m 14,6 km/h (3 Bft)
17.08.2015 21:26 14,1 C 12,8 C 99 % 15 lf 1012,4 hPa 0,0 l/m 0 min 2 min 0 W/m 12,6 km/h (3 Bft)
17.08.2015 21:28 14,1 C 12,8 C 99 % 15 lf 1012,3 hPa 0,0 l/m 0 min 2 min 0 W/m 18,8 km/h (3 Bft)
17.08.2015 21:30 14,1 C 12,8 C 99 % 15 lf 1012,3 hPa 0,0 l/m 0 min 2 min 0 W/m 18,8 km/h (3 Bft)
17.08.2015 21:32 14,1 C 12,8 C 99 % 15 lf 1012,4 hPa 0,2 l/m 0 min 2 min 0 W/m 16,7 km/h (3 Bft)
17.08.2015 21:34 14,1 C 12,8 C 99 % 15 lf 1012,4 hPa 0,0 l/m 0 min 2 min 0 W/m 14,6 km/h (3 Bft)
17.08.2015 21:36 14,1 C 12,8 C 99 % 15 lf 1012,4 hPa 0,0 l/m 0 min 2 min 0 W/m 18,8 km/h (3 Bft)
17.08.2015 21:38 14,0 C 12,8 C 99 % 15 lf 1012,4 hPa 0,0 l/m 0 min 2 min 0 W/m 23,0 km/h (4 Bft)
17.08.2015 21:40 14,0 C 12,8 C 99 % 15 lf 1012,3 hPa 0,0 l/m 0 min 2 min 0 W/m 20,9 km/h (4 Bft)
17.08.2015 21:42 14,0 C 12,8 C 99 % 15 lf 1012,4 hPa 0,0 l/m 0 min 2 min 0 W/m 18,8 km/h (3 Bft)
17.08.2015 21:44 14,0 C 12,8 C 99 % 15 lf 1012,4 hPa 0,0 l/m 0 min 2 min 0 W/m 20,9 km/h (4 Bft)
17.08.2015 21:46 13,9 C 12,8 C 99 % 15 lf 1012,3 hPa 0,0 l/m 0 min 2 min 0 W/m 14,6 km/h (3 Bft)
17.08.2015 21:48 13,9 C 12,8 C 99 % 15 lf 1012,3 hPa 0,2 l/m 0 min 2 min 0 W/m 16,7 km/h (3 Bft)
17.08.2015 21:50 13,9 C 12,8 C 99 % 15 lf 1012,4 hPa 0,0 l/m 0 min 2 min 0 W/m 18,8 km/h (3 Bft)
17.08.2015 21:52 13,9 C 12,8 C 99 % 15 lf 1012,3 hPa 0,0 l/m 0 min 2 min 0 W/m 18,8 km/h (3 Bft)
17.08.2015 21:54 13,9 C 12,8 C 99 % 15 lf 1012,3 hPa 0,0 l/m 0 min 2 min 0 W/m 23,0 km/h (4 Bft)
17.08.2015 21:56 13,9 C 12,8 C 99 % 15 lf 1012,4 hPa 0,0 l/m 0 min 2 min 0 W/m 23,0 km/h (4 Bft)
17.08.2015 21:58 13,9 C 12,8 C 99 % 15 lf 1012,4 hPa 0,0 l/m 0 min 2 min 0 W/m 20,9 km/h (4 Bft)
17.08.2015 22:00 13,8 C 12,8 C 99 % 15 lf 1012,4 hPa 0,0 l/m 0 min 2 min 0 W/m 25,1 km/h (4 Bft)
17.08.2015 22:02 13,8 C 12,8 C 99 % 15 lf 1012,3 hPa 0,0 l/m 0 min 2 min 0 W/m 18,8 km/h (3 Bft)
17.08.2015 22:04 13,8 C 12,8 C 99 % 15 lf 1012,3 hPa 0,0 l/m 0 min 2 min 0 W/m 25,1 km/h (4 Bft)
17.08.2015 22:06 13,8 C 12,8 C 99 % 15 lf 1012,3 hPa 0,0 l/m 0 min 2 min 0 W/m 18,8 km/h (3 Bft)
17.08.2015 22:08 13,8 C 12,8 C 99 % 15 lf 1012,4 hPa 0,0 l/m 0 min 2 min 0 W/m 23,0 km/h (4 Bft)
17.08.2015 22:10 13,8 C 12,8 C 99 % 15 lf 1012,3 hPa 0,0 l/m 0 min 2 min 0 W/m 18,8 km/h (3 Bft)
17.08.2015 22:12 13,7 C 12,2 C 99 % 15 lf 1012,3 hPa 0,2 l/m 0 min 2 min 0 W/m 14,6 km/h (3 Bft)
17.08.2015 22:14 13,7 C 12,2 C 99 % 15 lf 1012,3 hPa 0,0 l/m 0 min 2 min 0 W/m 23,0 km/h (4 Bft)
17.08.2015 22:16 13,7 C 12,8 C 99 % 15 lf 1012,3 hPa 0,0 l/m 0 min 2 min 0 W/m 16,7 km/h (3 Bft)
17.08.2015 22:18 13,7 C 12,8 C 99 % 15 lf 1012,4 hPa 0,0 l/m 0 min 2 min 0 W/m 16,7 km/h (3 Bft)
17.08.2015 22:20 13,7 C 12,8 C 99 % 15 lf 1012,3 hPa 0,0 l/m 0 min 2 min 0 W/m 14,6 km/h (3 Bft)
17.08.2015 22:22 13,7 C 12,8 C 99 % 15 lf 1012,3 hPa 0,0 l/m 0 min 2 min 0 W/m 10,5 km/h (2 Bft)
17.08.2015 22:24 13,7 C 12,8 C 99 % 15 lf 1012,3 hPa 0,0 l/m 0 min 2 min 0 W/m 20,9 km/h (4 Bft)
17.08.2015 22:26 13,7 C 12,8 C 99 % 15 lf 1012,4 hPa 0,2 l/m 0 min 2 min 0 W/m 27,2 km/h (4 Bft)
17.08.2015 22:28 13,7 C 12,2 C 99 % 15 lf 1012,4 hPa 0,0 l/m 0 min 2 min 0 W/m 23,0 km/h (4 Bft)
17.08.2015 22:30 13,7 C 12,2 C 99 % 15 lf 1012,3 hPa 0,0 l/m 0 min 2 min 0 W/m 18,8 km/h (3 Bft)
17.08.2015 22:32 13,6 C 12,2 C 99 % 15 lf 1012,4 hPa 0,0 l/m 0 min 2 min 0 W/m 29,3 km/h (5 Bft)
17.08.2015 22:34 13,6 C 12,2 C 99 % 15 lf 1012,4 hPa 0,0 l/m 0 min 2 min 0 W/m 25,1 km/h (4 Bft)
17.08.2015 22:36 13,6 C 12,2 C 99 % 15 lf 1012,3 hPa 0,0 l/m 0 min 2 min 0 W/m 20,9 km/h (4 Bft)
17.08.2015 22:38 13,6 C 12,2 C 99 % 15 lf 1012,3 hPa 0,0 l/m 0 min 2 min 0 W/m 18,8 km/h (3 Bft)
17.08.2015 22:40 13,6 C 12,2 C 99 % 15 lf 1012,3 hPa 0,0 l/m 0 min 2 min 0 W/m 16,7 km/h (3 Bft)
17.08.2015 22:42 13,5 C 12,2 C 99 % 15 lf 1012,3 hPa 0,0 l/m 0 min 2 min 0 W/m 16,7 km/h (3 Bft)
17.08.2015 22:44 13,5 C 12,2 C 99 % 15 lf 1012,3 hPa 0,0 l/m 0 min 2 min 0 W/m 18,8 km/h (3 Bft)
17.08.2015 22:46 13,5 C 12,2 C 99 % 15 lf 1012,3 hPa 0,0 l/m 0 min 2 min 0 W/m 20,9 km/h (4 Bft)
17.08.2015 22:48 13,5 C 12,2 C 99 % 15 lf 1012,4 hPa 0,0 l/m 0 min 2 min 0 W/m 18,8 km/h (3 Bft)
17.08.2015 22:50 13,5 C 12,2 C 99 % 15 lf 1012,4 hPa 0,2 l/m 0 min 2 min 0 W/m 12,6 km/h (3 Bft)
17.08.2015 22:52 13,5 C 12,2 C 99 % 15 lf 1012,4 hPa 0,0 l/m 0 min 2 min 0 W/m 18,8 km/h (3 Bft)
17.08.2015 22:54 13,5 C 12,2 C 99 % 15 lf 1012,3 hPa 0,0 l/m 0 min 2 min 0 W/m 16,7 km/h (3 Bft)
17.08.2015 22:56 13,5 C 12,2 C 99 % 15 lf 1012,4 hPa 0,0 l/m 0 min 2 min 0 W/m 20,9 km/h (4 Bft)
17.08.2015 22:58 13,5 C 12,2 C 99 % 15 lf 1012,2 hPa 0,0 l/m 0 min 2 min 0 W/m 16,7 km/h (3 Bft)
17.08.2015 23:00 13,5 C 12,2 C 99 % 15 lf 1012,3 hPa 0,0 l/m 0 min 2 min 0 W/m 18,8 km/h (3 Bft)
17.08.2015 23:02 13,4 C 12,2 C 99 % 15 lf 1012,3 hPa 0,0 l/m 0 min 2 min 0 W/m 16,7 km/h (3 Bft)
17.08.2015 23:04 13,5 C 12,2 C 99 % 15 lf 1012,3 hPa 0,2 l/m 0 min 2 min 0 W/m 16,7 km/h (3 Bft)
17.08.2015 23:06 13,4 C 12,2 C 99 % 15 lf 1012,2 hPa 0,0 l/m 0 min 2 min 0 W/m 18,8 km/h (3 Bft)
17.08.2015 23:08 13,4 C 12,2 C 99 % 15 lf 1012,2 hPa 0,0 l/m 0 min 2 min 0 W/m 14,6 km/h (3 Bft)
17.08.2015 23:10 13,4 C 12,2 C 99 % 15 lf 1012,2 hPa 0,0 l/m 0 min 2 min 0 W/m 16,7 km/h (3 Bft)
17.08.2015 23:12 13,4 C 12,2 C 99 % 15 lf 1012,2 hPa 0,0 l/m 0 min 2 min 0 W/m 16,7 km/h (3 Bft)
17.08.2015 23:14 13,4 C 12,2 C 99 % 15 lf 1012,2 hPa 0,0 l/m 0 min 2 min 0 W/m 14,6 km/h (3 Bft)
17.08.2015 23:16 13,4 C 12,2 C 99 % 15 lf 1012,2 hPa 0,0 l/m 0 min 2 min 0 W/m 16,7 km/h (3 Bft)
17.08.2015 23:18 13,4 C 12,2 C 99 % 15 lf 1012,2 hPa 0,0 l/m 0 min 2 min 0 W/m 18,8 km/h (3 Bft)
17.08.2015 23:20 13,4 C 12,2 C 99 % 15 lf 1012,2 hPa 0,0 l/m 0 min 2 min 0 W/m 12,6 km/h (3 Bft)
17.08.2015 23:22 13,4 C 12,2 C 99 % 15 lf 1012,1 hPa 0,0 l/m 0 min 2 min 0 W/m 14,6 km/h (3 Bft)
17.08.2015 23:24 13,4 C 12,2 C 99 % 15 lf 1012,1 hPa 0,2 l/m 0 min 2 min 0 W/m 18,8 km/h (3 Bft)
17.08.2015 23:26 13,4 C 12,2 C 99 % 15 lf 1012,1 hPa 0,0 l/m 0 min 2 min 0 W/m 14,6 km/h (3 Bft)
17.08.2015 23:28 13,4 C 12,2 C 99 % 15 lf 1012,0 hPa 0,0 l/m 0 min 2 min 0 W/m 18,8 km/h (3 Bft)
17.08.2015 23:30 13,4 C 12,2 C 99 % 15 lf 1012,0 hPa 0,0 l/m 0 min 2 min 0 W/m 16,7 km/h (3 Bft)
17.08.2015 23:32 13,4 C 12,2 C 99 % 15 lf 1012,0 hPa 0,0 l/m 0 min 2 min 0 W/m 14,6 km/h (3 Bft)
17.08.2015 23:34 13,4 C 12,2 C 99 % 15 lf 1012,0 hPa 0,0 l/m 0 min 2 min 0 W/m 14,6 km/h (3 Bft)
17.08.2015 23:36 13,4 C 12,2 C 99 % 15 lf 1012,1 hPa 0,0 l/m 0 min 2 min 0 W/m 20,9 km/h (4 Bft)
17.08.2015 23:38 13,4 C 12,2 C 99 % 15 lf 1012,1 hPa 0,0 l/m 0 min 2 min 0 W/m 10,5 km/h (2 Bft)
17.08.2015 23:40 13,4 C 12,2 C 99 % 15 lf 1012,1 hPa 0,0 l/m 0 min 2 min 0 W/m 14,6 km/h (3 Bft)
17.08.2015 23:42 13,4 C 12,2 C 99 % 15 lf 1012,1 hPa 0,0 l/m 0 min 2 min 0 W/m 16,7 km/h (3 Bft)
17.08.2015 23:44 13,4 C 12,2 C 99 % 15 lf 1012,0 hPa 0,0 l/m 0 min 2 min 0 W/m 20,9 km/h (4 Bft)
17.08.2015 23:46 13,4 C 12,2 C 99 % 15 lf 1012,0 hPa 0,0 l/m 0 min 2 min 0 W/m 16,7 km/h (3 Bft)
17.08.2015 23:48 13,4 C 12,2 C 99 % 15 lf 1012,0 hPa 0,0 l/m 0 min 2 min 0 W/m 16,7 km/h (3 Bft)
17.08.2015 23:50 13,4 C 12,2 C 99 % 15 lf 1012,0 hPa 0,0 l/m 0 min 2 min 0 W/m 20,9 km/h (4 Bft)
17.08.2015 23:52 13,4 C 12,2 C 99 % 15 lf 1012,1 hPa 0,2 l/m 0 min 2 min 0 W/m 14,6 km/h (3 Bft)
17.08.2015 23:54 13,4 C 12,2 C 99 % 15 lf 1012,0 hPa 0,0 l/m 0 min 2 min 0 W/m 14,6 km/h (3 Bft)
17.08.2015 23:56 13,4 C 12,2 C 99 % 15 lf 1012,0 hPa 0,0 l/m 0 min 2 min 0 W/m 16,7 km/h (3 Bft)
17.08.2015 23:58 13,4 C 12,2 C 99 % 15 lf 1012,0 hPa 0,0 l/m 0 min 2 min 0 W/m 14,6 km/h (3 Bft)
_ Min-Zeit 07:22 01:06 17:16 00:00 18:50 - - - - 04:02
Minimum _ 12,9 C 12,2 C 98 % 15 lf 1012,0 hPa - - - - 0,0 km/h (0 Bft)
_ Max-Zeit 15:24 15:12 10:30 00:00 00:16 00:42 00:00 00:00 15:08 08:36
Maximum _ 15,0 C 14,4 C 100 % 15 lf 1014,4 hPa 0,2 l/m 0 min 2 min 194 W/m 29,3 km/h
NW (5 Bft)
Durchschnitt _ 13,8 C 12,8 C 99 % 15 lf 1012,9 hPa #11,8 l/m #0 min. #16:50 h 65 W/m 15,4 km/h (3 Bft)
© 2015 W. Hausmann